Observation data for Clyde on 11/14/2019      Previous  Date  Next       Current Mesonet Observations  Soil Data  Daily Summary Page  Observations in Plain Language
KCL2 140600Z 18005KT 02/01 A3007 RMK A01 T00240011  RH  091%=      5-min Rain = 0
KCL2 140601Z 18005KT 02/01 A3007 RMK A01 T00240011  RH  091%=      5-min Rain = 0
KCL2 140602Z 18005KT 02/01 A3007 RMK A01 T00240011  RH  091%=      5-min Rain = 0
KCL2 140603Z 18005KT 02/01 A3007 RMK A01 T00240011  RH  092%=      5-min Rain = 0
KCL2 140604Z 17005KT 02/01 A3007 RMK A01 T00240011  RH  092%=      5-min Rain = 0
KCL2 140605Z 17005KT 02/01 A3008 RMK A01 T00240011  RH  092%=      5-min Rain = 0
KCL2 140606Z 17005KT 02/01 A3008 RMK A01 T00240011  RH  092%=      5-min Rain = 0
KCL2 140607Z 17005KT 02/01 A3008 RMK A01 T00240011  RH  092%=      5-min Rain = 0
KCL2 140608Z 17005KT 02/01 A3008 RMK A01 T00240011  RH  091%=      5-min Rain = 0
KCL2 140609Z 17005KT 02/01 A3008 RMK A01 T00240012  RH  091%=      5-min Rain = 0
KCL2 140610Z 17005KT 02/01 A3008 RMK A01 T00240011  RH  091%=      5-min Rain = 0
KCL2 140611Z 17005KT 02/01 A3008 RMK A01 T00240011  RH  091%=      5-min Rain = 0
KCL2 140612Z 17005KT 02/01 A3008 RMK A01 T00240012  RH  091%=      5-min Rain = 0
KCL2 140613Z 16004KT 02/01 A3008 RMK A01 T00240012  RH  092%=      5-min Rain = 0
KCL2 140614Z 16004KT 03/01 A3008 RMK A01 T00250013  RH  092%=      5-min Rain = 0
KCL2 140615Z 17004KT 03/01 A3008 RMK A01 T00260014  RH  092%=      5-min Rain = 0
KCL2 140616Z 16003KT 03/01 A3007 RMK A01 T00260014  RH  092%=      5-min Rain = 0
KCL2 140617Z 16003KT 03/01 A3007 RMK A01 T00260013  RH  091%=      5-min Rain = 0
KCL2 140618Z 16004KT 03/01 A3007 RMK A01 T00260013  RH  091%=      5-min Rain = 0
KCL2 140619Z 16004KT 03/01 A3008 RMK A01 T00260013  RH  091%=      5-min Rain = 0
KCL2 140620Z 17005KT 03/01 A3008 RMK A01 T00250012  RH  091%=      5-min Rain = 0
KCL2 140621Z 17004KT 02/01 A3008 RMK A01 T00240011  RH  091%=      5-min Rain = 0
KCL2 140622Z 17004KT 02/01 A3008 RMK A01 T00240010  RH  091%=      5-min Rain = 0
KCL2 140623Z 17004KT 02/01 A3008 RMK A01 T00230010  RH  091%=      5-min Rain = 0
KCL2 140624Z 16004KT 02/01 A3008 RMK A01 T00230010  RH  091%=      5-min Rain = 0
KCL2 140625Z 17004KT 02/01 A3008 RMK A01 T00230010  RH  091%=      5-min Rain = 0
KCL2 140626Z 17004KT 02/01 A3008 RMK A01 T00230011  RH  092%=      5-min Rain = 0
KCL2 140627Z 16005KT 02/01 A3008 RMK A01 T00230011  RH  091%=      5-min Rain = 0
KCL2 140628Z 17004KT 02/01 A3008 RMK A01 T00230011  RH  091%=      5-min Rain = 0
KCL2 140629Z 17005KT 02/01 A3008 RMK A01 T00230010  RH  091%=      5-min Rain = 0
KCL2 140630Z 17004KT 02/01 A3008 RMK A01 T00230010  RH  091%=      5-min Rain = 0
KCL2 140631Z 17005KT 02/01 A3008 RMK A01 T00230010  RH  091%=      5-min Rain = 0
KCL2 140632Z 17004KT 02/01 A3008 RMK A01 T00220009  RH  091%=      5-min Rain = 0
KCL2 140633Z 17004KT 02/01 A3008 RMK A01 T00220009  RH  091%=      5-min Rain = 0
KCL2 140634Z 17004KT 02/01 A3008 RMK A01 T00220009  RH  091%=      5-min Rain = 0
KCL2 140635Z 17005KT 02/01 A3008 RMK A01 T00230010  RH  091%=      5-min Rain = 0
KCL2 140636Z 17005KT 02/01 A3008 RMK A01 T00230009  RH  091%=      5-min Rain = 0
KCL2 140637Z 17005KT 02/01 A3008 RMK A01 T00230009  RH  091%=      5-min Rain = 0
KCL2 140638Z 17005KT 02/01 A3008 RMK A01 T00220008  RH  090%=      5-min Rain = 0
KCL2 140639Z 17005KT 02/01 A3008 RMK A01 T00220008  RH  090%=      5-min Rain = 0
KCL2 140640Z 16005KT 02/01 A3008 RMK A01 T00220008  RH  090%=      5-min Rain = 0
KCL2 140641Z 16004KT 02/01 A3008 RMK A01 T00220008  RH  091%=      5-min Rain = 0
KCL2 140642Z 16004KT 02/01 A3008 RMK A01 T00220008  RH  091%=      5-min Rain = 0
KCL2 140643Z 16005KT 02/01 A3008 RMK A01 T00220008  RH  091%=      5-min Rain = 0
KCL2 140644Z 16005KT 02/01 A3008 RMK A01 T00220008  RH  091%=      5-min Rain = 0
KCL2 140645Z 16005KT 02/01 A3008 RMK A01 T00220008  RH  091%=      5-min Rain = 0
KCL2 140646Z 16005KT 02/01 A3008 RMK A01 T00220009  RH  091%=      5-min Rain = 0
KCL2 140647Z 16005KT 02/01 A3008 RMK A01 T00220008  RH  091%=      5-min Rain = 0
KCL2 140648Z 16005KT 02/01 A3008 RMK A01 T00220008  RH  090%=      5-min Rain = 0
KCL2 140649Z 15005KT 02/01 A3008 RMK A01 T00220008  RH  090%=      5-min Rain = 0
KCL2 140650Z 16004KT 02/01 A3008 RMK A01 T00230009  RH  090%=      5-min Rain = 0
KCL2 140651Z 16004KT 02/01 A3008 RMK A01 T00230008  RH  090%=      5-min Rain = 0
KCL2 140652Z 16004KT 02/01 A3008 RMK A01 T00230008  RH  090%=      5-min Rain = 0
KCL2 140653Z 16004KT 02/01 A3008 RMK A01 T00230008  RH  090%=      5-min Rain = 0
KCL2 140654Z 16004KT 02/01 A3008 RMK A01 T00230008  RH  090%=      5-min Rain = 0
KCL2 140655Z 16004KT 02/01 A3008 RMK A01 T00230008  RH  090%=      5-min Rain = 0
KCL2 140656Z 16003KT 02/01 A3008 RMK A01 T00220008  RH  090%=      5-min Rain = 0
KCL2 140657Z 16003KT 02/01 A3008 RMK A01 T00220007  RH  090%=      5-min Rain = 0
KCL2 140658Z 17003KT 02/01 A3008 RMK A01 T00220007  RH  090%=      5-min Rain = 0
KCL2 140659Z 17003KT 02/01 A3008 RMK A01 T00220007  RH  090%=      5-min Rain = 0
KCL2 140700Z 17003KT 02/01 A3008 RMK A01 T00220007  RH  090%=      5-min Rain = 0
KCL2 140701Z 17003KT 02/01 A3008 RMK A01 T00210007  RH  090%=      5-min Rain = 0
KCL2 140702Z 17004KT 02/01 A3008 RMK A01 T00210006  RH  090%=      5-min Rain = 0
KCL2 140703Z 17003KT 02/01 A3008 RMK A01 T00210006  RH  090%=      5-min Rain = 0
KCL2 140704Z 17003KT 02/01 A3008 RMK A01 T00210007  RH  090%=      5-min Rain = 0
KCL2 140705Z 18003KT 02/01 A3008 RMK A01 T00210007  RH  091%=      5-min Rain = 0
KCL2 140706Z 18003KT 02/01 A3008 RMK A01 T00200006  RH  091%=      5-min Rain = 0
KCL2 140707Z 18003KT 02/01 A3008 RMK A01 T00200006  RH  091%=      5-min Rain = 0
KCL2 140708Z 18003KT 02/01 A3009 RMK A01 T00190006  RH  091%=      5-min Rain = 0
KCL2 140709Z 18003KT 02/01 A3009 RMK A01 T00190006  RH  091%=      5-min Rain = 0
KCL2 140710Z 18003KT 02/01 A3009 RMK A01 T00200006  RH  091%=      5-min Rain = 0
KCL2 140711Z 17003KT 02/01 A3009 RMK A01 T00190006  RH  091%=      5-min Rain = 0
KCL2 140712Z 17003KT 02/01 A3009 RMK A01 T00190005  RH  091%=      5-min Rain = 0
KCL2 140713Z 18003KT 02/01 A3009 RMK A01 T00180005  RH  091%=      5-min Rain = 0
KCL2 140714Z 18003KT 02/01 A3009 RMK A01 T00180005  RH  091%=      5-min Rain = 0
KCL2 140715Z 18003KT 02/01 A3009 RMK A01 T00180005  RH  091%=      5-min Rain = 0
KCL2 140716Z 18004KT 02/01 A3009 RMK A01 T00180005  RH  091%=      5-min Rain = 0
KCL2 140717Z 18004KT 02/01 A3009 RMK A01 T00170005  RH  091%=      5-min Rain = 0
KCL2 140718Z 18005KT 02/00 A3009 RMK A01 T00170004  RH  091%=      5-min Rain = 0
KCL2 140719Z 18005KT 02/00 A3009 RMK A01 T00160004  RH  091%=      5-min Rain = 0
KCL2 140720Z 18004KT 02/00 A3009 RMK A01 T00160004  RH  092%=      5-min Rain = 0
KCL2 140721Z 18004KT 02/01 A3009 RMK A01 T00170005  RH  092%=      5-min Rain = 0
KCL2 140722Z 19004KT 02/01 A3009 RMK A01 T00170006  RH  092%=      5-min Rain = 0
KCL2 140723Z 19004KT 02/01 A3009 RMK A01 T00170006  RH  093%=      5-min Rain = 0
KCL2 140724Z 19004KT 02/01 A3009 RMK A01 T00170007  RH  093%=      5-min Rain = 0
KCL2 140725Z 18005KT 02/01 A3009 RMK A01 T00180008  RH  093%=      5-min Rain = 0
KCL2 140726Z 18004KT 02/01 A3009 RMK A01 T00180008  RH  093%=      5-min Rain = 0
KCL2 140727Z 19004KT 02/01 A3009 RMK A01 T00180008  RH  093%=      5-min Rain = 0
KCL2 140728Z 19003KT 02/01 A3009 RMK A01 T00170007  RH  093%=      5-min Rain = 0
KCL2 140729Z 20003KT 02/01 A3008 RMK A01 T00170007  RH  093%=      5-min Rain = 0
KCL2 140730Z 20003KT 02/01 A3008 RMK A01 T00170007  RH  093%=      5-min Rain = 0
KCL2 140731Z 20003KT 02/01 A3008 RMK A01 T00170008  RH  093%=      5-min Rain = 0
KCL2 140732Z 20003KT 02/01 A3008 RMK A01 T00170008  RH  093%=      5-min Rain = 0
KCL2 140733Z 19004KT 02/01 A3009 RMK A01 T00180008  RH  094%=      5-min Rain = 0
KCL2 140734Z 19004KT 02/01 A3009 RMK A01 T00180009  RH  094%=      5-min Rain = 0
KCL2 140735Z 19003KT 02/01 A3009 RMK A01 T00180009  RH  094%=      5-min Rain = 0
KCL2 140736Z 19003KT 02/01 A3009 RMK A01 T00190010  RH  094%=      5-min Rain = 0
KCL2 140737Z 19003KT 02/01 A3009 RMK A01 T00180009  RH  093%=      5-min Rain = 0
KCL2 140738Z 19003KT 02/01 A3009 RMK A01 T00190009  RH  093%=      5-min Rain = 0
KCL2 140739Z 19003KT 02/01 A3009 RMK A01 T00180009  RH  093%=      5-min Rain = 0
KCL2 140740Z 18004KT 02/01 A3009 RMK A01 T00180008  RH  093%=      5-min Rain = 0
KCL2 140741Z 18004KT 02/01 A3009 RMK A01 T00180008  RH  093%=      5-min Rain = 0
KCL2 140742Z 17004KT 02/01 A3009 RMK A01 T00180008  RH  093%=      5-min Rain = 0
KCL2 140743Z 17005KT 02/01 A3009 RMK A01 T00170007  RH  093%=      5-min Rain = 0
KCL2 140744Z 18004KT 02/01 A3009 RMK A01 T00170007  RH  093%=      5-min Rain = 0
KCL2 140745Z 18004KT 02/01 A3009 RMK A01 T00170008  RH  094%=      5-min Rain = 0
KCL2 140746Z 18004KT 02/01 A3009 RMK A01 T00170008  RH  094%=      5-min Rain = 0
KCL2 140747Z 19004KT 02/01 A3009 RMK A01 T00170009  RH  094%=      5-min Rain = 0
KCL2 140748Z 18004KT 02/01 A3009 RMK A01 T00170008  RH  094%=      5-min Rain = 0
KCL2 140749Z 18004KT 02/01 A3009 RMK A01 T00170008  RH  094%=      5-min Rain = 0
KCL2 140750Z 19003KT 02/01 A3009 RMK A01 T00180009  RH  094%=      5-min Rain = 0
KCL2 140751Z 20003KT 02/01 A3009 RMK A01 T00170009  RH  094%=      5-min Rain = 0
KCL2 140752Z 20003KT 02/01 A3009 RMK A01 T00180009  RH  094%=      5-min Rain = 0
KCL2 140753Z 20002KT 02/01 A3009 RMK A01 T00180009  RH  094%=      5-min Rain = 0
KCL2 140754Z 20002KT 02/01 A3009 RMK A01 T00180009  RH  094%=      5-min Rain = 0
KCL2 140755Z 20002KT 02/01 A3009 RMK A01 T00170008  RH  094%=      5-min Rain = 0
KCL2 140756Z 19002KT 02/01 A3009 RMK A01 T00170009  RH  094%=      5-min Rain = 0
KCL2 140757Z 19002KT 02/01 A3009 RMK A01 T00170008  RH  094%=      5-min Rain = 0
KCL2 140758Z 18002KT 02/01 A3009 RMK A01 T00160007  RH  094%=      5-min Rain = 0
KCL2 140759Z 18002KT 02/01 A3009 RMK A01 T00160007  RH  094%=      5-min Rain = 0
KCL2 140800Z 19001KT 02/01 A3009 RMK A01 T00150006  RH  094%=      5-min Rain = 0
KCL2 140801Z 19001KT 02/01 A3009 RMK A01 T00150006  RH  094%=      5-min Rain = 0
KCL2 140802Z 19002KT 02/01 A3009 RMK A01 T00150006  RH  094%=      5-min Rain = 0
KCL2 140803Z 19002KT 02/01 A3009 RMK A01 T00150006  RH  094%=      5-min Rain = 0
KCL2 140804Z 19003KT 02/01 A3009 RMK A01 T00150006  RH  094%=      5-min Rain = 0
KCL2 140805Z 19003KT 02/01 A3009 RMK A01 T00150007  RH  094%=      5-min Rain = 0
KCL2 140806Z 19003KT 02/01 A3009 RMK A01 T00150007  RH  094%=      5-min Rain = 0
KCL2 140807Z 19003KT 02/01 A3009 RMK A01 T00150008  RH  095%=      5-min Rain = 0
KCL2 140808Z 19003KT 02/01 A3009 RMK A01 T00150008  RH  095%=      5-min Rain = 0
KCL2 140809Z 20003KT 02/01 A301 RMK A01 T00150008  RH  095%=      5-min Rain = 0
KCL2 140810Z 21003KT 02/01 A301 RMK A01 T00150007  RH  095%=      5-min Rain = 0
KCL2 140811Z 21003KT 02/01 A301 RMK A01 T00150007  RH  095%=      5-min Rain = 0
KCL2 140812Z 22003KT 01/01 A301 RMK A01 T00140007  RH  095%=      5-min Rain = 0
KCL2 140813Z 22003KT 01/01 A301 RMK A01 T00140007  RH  095%=      5-min Rain = 0
KCL2 140814Z 23002KT 02/01 A301 RMK A01 T00150007  RH  095%=      5-min Rain = 0
KCL2 140815Z 24003KT 02/01 A3009 RMK A01 T00150007  RH  095%=      5-min Rain = 0
KCL2 140816Z 24003KT 02/01 A3009 RMK A01 T00150008  RH  095%=      5-min Rain = 0
KCL2 140817Z 25004KT 02/01 A3009 RMK A01 T00160009  RH  095%=      5-min Rain = 0
KCL2 140818Z 25004KT 02/01 A3009 RMK A01 T00160010  RH  096%=      5-min Rain = 0
KCL2 140819Z 26004KT 02/01 A3009 RMK A01 T00170011  RH  096%=      5-min Rain = 0
KCL2 140820Z 27003KT 02/01 A3009 RMK A01 T00170011  RH  096%=      5-min Rain = 0
KCL2 140821Z 27003KT 02/01 A3009 RMK A01 T00170010  RH  095%=      5-min Rain = 0
KCL2 140822Z 27003KT 02/01 A3009 RMK A01 T00170010  RH  096%=      5-min Rain = 0
KCL2 140823Z 27003KT 02/01 A3009 RMK A01 T00170011  RH  096%=      5-min Rain = 0
KCL2 140824Z 27003KT 02/01 A3009 RMK A01 T00170011  RH  096%=      5-min Rain = 0
KCL2 140825Z 28004KT 02/01 A3009 RMK A01 T00170011  RH  096%=      5-min Rain = 0
KCL2 140826Z 28004KT 02/01 A3009 RMK A01 T00170011  RH  096%=      5-min Rain = 0
KCL2 140827Z 28004KT 02/01 A3009 RMK A01 T00170011  RH  096%=      5-min Rain = 0
KCL2 140828Z 28004KT 02/01 A3009 RMK A01 T00180013  RH  096%=      5-min Rain = 0
KCL2 140829Z 29005KT 02/01 A3009 RMK A01 T00190014  RH  096%=      5-min Rain = 0
KCL2 140830Z 29005KT 02/01 A3009 RMK A01 T00190014  RH  096%=      5-min Rain = 0
KCL2 140831Z 29006KT 02/01 A3009 RMK A01 T00190013  RH  096%=      5-min Rain = 0
KCL2 140832Z 29006KT 02/01 A3009 RMK A01 T00180012  RH  096%=      5-min Rain = 0
KCL2 140833Z 29006KT 02/01 A3009 RMK A01 T00170010  RH  096%=      5-min Rain = 0
KCL2 140834Z 29007KT 02/01 A3009 RMK A01 T00160009  RH  096%=      5-min Rain = 0
KCL2 140835Z 30007KT 02/01 A3009 RMK A01 T00150009  RH  096%=      5-min Rain = 0
KCL2 140836Z 30007KT 02/01 A3009 RMK A01 T00150009  RH  096%=      5-min Rain = 0
KCL2 140837Z 30007KT 02/01 A3009 RMK A01 T00150009  RH  096%=      5-min Rain = 0
KCL2 140838Z 30007KT 02/01 A3009 RMK A01 T00150009  RH  096%=      5-min Rain = 0
KCL2 140839Z 30007KT 02/01 A3009 RMK A01 T00160010  RH  096%=      5-min Rain = 0
KCL2 140840Z 30007KT 02/01 A3009 RMK A01 T00160011  RH  096%=      5-min Rain = 0
KCL2 140841Z 30006KT 02/01 A301 RMK A01 T00170012  RH  097%=      5-min Rain = 0
KCL2 140842Z 30006KT 02/01 A301 RMK A01 T00180013  RH  097%=      5-min Rain = 0
KCL2 140843Z 29006KT 02/01 A301 RMK A01 T00180013  RH  097%=      5-min Rain = 0
KCL2 140844Z 29005KT 02/01 A301 RMK A01 T00190014  RH  097%=      5-min Rain = 0
KCL2 140845Z 29005KT 02/01 A301 RMK A01 T00190014  RH  097%=      5-min Rain = 0
KCL2 140846Z 29005KT 02/01 A301 RMK A01 T00190014  RH  097%=      5-min Rain = 0
KCL2 140847Z 30004KT 02/01 A301 RMK A01 T00190014  RH  097%=      5-min Rain = 0
KCL2 140848Z 30005KT 02/01 A301 RMK A01 T00190014  RH  096%=      5-min Rain = 0
KCL2 140849Z 30004KT 02/01 A301 RMK A01 T00190013  RH  096%=      5-min Rain = 0
KCL2 140850Z 30004KT 02/01 A301 RMK A01 T00180013  RH  096%=      5-min Rain = 0
KCL2 140851Z 31004KT 02/01 A301 RMK A01 T00180013  RH  096%=      5-min Rain = 0
KCL2 140852Z 31004KT 02/01 A301 RMK A01 T00180012  RH  096%=      5-min Rain = 0
KCL2 140853Z 31005KT 02/01 A301 RMK A01 T00180012  RH  096%=      5-min Rain = 0
KCL2 140854Z 31005KT 02/01 A301 RMK A01 T00180013  RH  097%=      5-min Rain = 0
KCL2 140855Z 31005KT 02/01 A301 RMK A01 T00190014  RH  097%=      5-min Rain = 0
KCL2 140856Z 31005KT 02/01 A301 RMK A01 T00190014  RH  097%=      5-min Rain = 0
KCL2 140857Z 31005KT 02/02 A301 RMK A01 T00190015  RH  097%=      5-min Rain = 0
KCL2 140858Z 31004KT 02/02 A301 RMK A01 T00200015  RH  097%=      5-min Rain = 0
KCL2 140859Z 31005KT 02/02 A301 RMK A01 T00200015  RH  097%=      5-min Rain = 0
KCL2 140900Z 31004KT 02/02 A301 RMK A01 T00200015  RH  097%=      5-min Rain = 0
KCL2 140901Z 30004KT 02/02 A301 RMK A01 T00200015  RH  097%=      5-min Rain = 0
KCL2 140902Z 30004KT 02/01 A3011 RMK A01 T00200014  RH  096%=      5-min Rain = 0
KCL2 140903Z 30004KT 02/01 A3011 RMK A01 T00190014  RH  096%=      5-min Rain = 0
KCL2 140904Z 30004KT 02/01 A3011 RMK A01 T00190014  RH  096%=      5-min Rain = 0
KCL2 140905Z 30004KT 02/01 A3011 RMK A01 T00190013  RH  096%=      5-min Rain = 0
KCL2 140906Z 30004KT 02/01 A3011 RMK A01 T00190013  RH  096%=      5-min Rain = 0
KCL2 140907Z 30004KT 02/01 A3011 RMK A01 T00180012  RH  096%=      5-min Rain = 0
KCL2 140908Z 30004KT 02/01 A3011 RMK A01 T00170011  RH  096%=      5-min Rain = 0
KCL2 140909Z 30004KT 02/01 A3011 RMK A01 T00150009  RH  096%=      5-min Rain = 0
KCL2 140910Z 30004KT 02/01 A3011 RMK A01 T00150008  RH  096%=      5-min Rain = 0
KCL2 140911Z 30004KT 02/01 A3011 RMK A01 T00150009  RH  096%=      5-min Rain = 0
KCL2 140912Z 29004KT 02/01 A3011 RMK A01 T00150009  RH  096%=      5-min Rain = 0
KCL2 140913Z 29004KT 01/01 A3011 RMK A01 T00140009  RH  096%=      5-min Rain = 0
KCL2 140914Z 29003KT 02/01 A3011 RMK A01 T00150009  RH  096%=      5-min Rain = 0
KCL2 140915Z 29003KT 01/01 A3012 RMK A01 T00140009  RH  096%=      5-min Rain = 0
KCL2 140916Z 29004KT 01/01 A3012 RMK A01 T00140009  RH  096%=      5-min Rain = 0
KCL2 140917Z 29004KT 01/01 A3012 RMK A01 T00140009  RH  096%=      5-min Rain = 0
KCL2 140918Z 29004KT 01/01 A3012 RMK A01 T00140009  RH  096%=      5-min Rain = 0
KCL2 140919Z 29004KT 01/01 A3012 RMK A01 T00140009  RH  096%=      5-min Rain = 0
KCL2 140920Z 28004KT 01/01 A3012 RMK A01 T00140009  RH  096%=      5-min Rain = 0
KCL2 140921Z 28004KT 01/01 A3012 RMK A01 T00140009  RH  097%=      5-min Rain = 0
KCL2 140922Z 28004KT 01/01 A3012 RMK A01 T00140009  RH  097%=      5-min Rain = 0
KCL2 140923Z 28004KT 01/01 A3012 RMK A01 T00140009  RH  097%=      5-min Rain = 0
KCL2 140924Z 27004KT 01/01 A3012 RMK A01 T00140009  RH  097%=      5-min Rain = 0
KCL2 140925Z 27004KT 01/01 A3012 RMK A01 T00140009  RH  097%=      5-min Rain = 0
KCL2 140926Z 28004KT 01/01 A3012 RMK A01 T00140009  RH  097%=      5-min Rain = 0
KCL2 140927Z 28004KT 01/01 A3012 RMK A01 T00140010  RH  097%=      5-min Rain = 0
KCL2 140928Z 28005KT 02/01 A3012 RMK A01 T00150011  RH  097%=      5-min Rain = 0
KCL2 140929Z 28005KT 02/01 A3012 RMK A01 T00150011  RH  097%=      5-min Rain = 0
KCL2 140930Z 28004KT 02/01 A3012 RMK A01 T00160012  RH  097%=      5-min Rain = 0
KCL2 140931Z 28004KT 02/01 A3012 RMK A01 T00160012  RH  097%=      5-min Rain = 0
KCL2 140932Z 28004KT 02/01 A3012 RMK A01 T00160012  RH  097%=      5-min Rain = 0
KCL2 140933Z 28004KT 02/01 A3012 RMK A01 T00160013  RH  097%=      5-min Rain = 0
KCL2 140934Z 28004KT 02/01 A3012 RMK A01 T00170013  RH  097%=      5-min Rain = 0
KCL2 140935Z 27004KT 02/01 A3012 RMK A01 T00170013  RH  097%=      5-min Rain = 0
KCL2 140936Z 27003KT 02/01 A3012 RMK A01 T00180014  RH  097%=      5-min Rain = 0
KCL2 140937Z 27003KT 02/01 A3012 RMK A01 T00180014  RH  098%=      5-min Rain = 0
KCL2 140938Z 28003KT 02/01 A3013 RMK A01 T00180014  RH  097%=      5-min Rain = 0
KCL2 140939Z 27003KT 02/01 A3012 RMK A01 T00180014  RH  097%=      5-min Rain = 0
KCL2 140940Z 28003KT 02/01 A3012 RMK A01 T00180014  RH  097%=      5-min Rain = 0
KCL2 140941Z 28003KT 02/02 A3012 RMK A01 T00180015  RH  098%=      5-min Rain = 0
KCL2 140942Z 28003KT 02/02 A3012 RMK A01 T00180015  RH  097%=      5-min Rain = 0
KCL2 140943Z 28003KT 02/01 A3012 RMK A01 T00180014  RH  097%=      5-min Rain = 0
KCL2 140944Z 29003KT 02/01 A3012 RMK A01 T00180014  RH  097%=      5-min Rain = 0
KCL2 140945Z 29004KT 02/01 A3012 RMK A01 T00180014  RH  097%=      5-min Rain = 0
KCL2 140946Z 29004KT 02/01 A3012 RMK A01 T00180014  RH  097%=      5-min Rain = 0
KCL2 140947Z 29003KT 02/01 A3012 RMK A01 T00180014  RH  098%=      5-min Rain = 0
KCL2 140948Z 29003KT 02/01 A3013 RMK A01 T00180014  RH  097%=      5-min Rain = 0
KCL2 140949Z 29002KT 02/01 A3013 RMK A01 T00170014  RH  097%=      5-min Rain = 0
KCL2 140950Z 29002KT 02/01 A3013 RMK A01 T00170013  RH  097%=      5-min Rain = 0
KCL2 140951Z 29002KT 02/01 A3013 RMK A01 T00160012  RH  097%=      5-min Rain = 0
KCL2 140952Z 29002KT 02/01 A3013 RMK A01 T00160012  RH  097%=      5-min Rain = 0
KCL2 140953Z 29002KT 02/01 A3013 RMK A01 T00160012  RH  097%=      5-min Rain = 0
KCL2 140954Z 29003KT 02/01 A3013 RMK A01 T00160012  RH  097%=      5-min Rain = 0
KCL2 140955Z 28002KT 02/01 A3013 RMK A01 T00160012  RH  098%=      5-min Rain = 0
KCL2 140956Z 28002KT 02/01 A3013 RMK A01 T00160013  RH  098%=      5-min Rain = 0
KCL2 140957Z 28002KT 02/01 A3013 RMK A01 T00160013  RH  098%=      5-min Rain = 0
KCL2 140958Z 27002KT 02/01 A3013 RMK A01 T00170013  RH  098%=      5-min Rain = 0
KCL2 140959Z 28002KT 02/01 A3013 RMK A01 T00170014  RH  098%=      5-min Rain = 0
KCL2 141000Z 28003KT 02/01 A3013 RMK A01 T00170014  RH  098%=      5-min Rain = 0
KCL2 141001Z 29003KT 02/01 A3013 RMK A01 T00170014  RH  098%=      5-min Rain = 0
KCL2 141002Z 30003KT 02/01 A3013 RMK A01 T00170014  RH  098%=      5-min Rain = 0
KCL2 141003Z 30004KT 02/01 A3013 RMK A01 T00180014  RH  098%=      5-min Rain = 0
KCL2 141004Z 30004KT 02/02 A3013 RMK A01 T00190016  RH  098%=      5-min Rain = 0
KCL2 141005Z 30004KT 02/02 A3013 RMK A01 T00180015  RH  098%=      5-min Rain = 0
KCL2 141006Z 30004KT 02/02 A3013 RMK A01 T00190016  RH  098%=      5-min Rain = 0
KCL2 141007Z 31004KT 02/02 A3013 RMK A01 T00190016  RH  098%=      5-min Rain = 0
KCL2 141008Z 30004KT 02/02 A3013 RMK A01 T00190016  RH  098%=      5-min Rain = 0
KCL2 141009Z 31003KT 02/02 A3013 RMK A01 T00190015  RH  098%=      5-min Rain = 0
KCL2 141010Z 30004KT 02/02 A3014 RMK A01 T00190016  RH  098%=      5-min Rain = 0
KCL2 141011Z 31004KT 02/02 A3014 RMK A01 T00190016  RH  098%=      5-min Rain = 0
KCL2 141012Z 31004KT 02/02 A3014 RMK A01 T00190016  RH  098%=      5-min Rain = 0
KCL2 141013Z 31004KT 02/02 A3014 RMK A01 T00190016  RH  098%=      5-min Rain = 0
KCL2 141014Z 31004KT 02/02 A3014 RMK A01 T00190016  RH  098%=      5-min Rain = 0
KCL2 141015Z 31004KT 02/02 A3014 RMK A01 T00180016  RH  098%=      5-min Rain = 0
KCL2 141016Z 32004KT 02/02 A3014 RMK A01 T00190016  RH  098%=      5-min Rain = 0
KCL2 141017Z 32005KT 02/02 A3014 RMK A01 T00190016  RH  098%=      5-min Rain = 0
KCL2 141018Z 32005KT 02/02 A3014 RMK A01 T00190016  RH  098%=      5-min Rain = 0
KCL2 141019Z 32005KT 02/02 A3014 RMK A01 T00190016  RH  098%=      5-min Rain = 0
KCL2 141020Z 32004KT 02/02 A3014 RMK A01 T00180015  RH  098%=      5-min Rain = 0
KCL2 141021Z 33004KT 02/02 A3014 RMK A01 T00180015  RH  098%=      5-min Rain = 0
KCL2 141022Z 34004KT 02/01 A3015 RMK A01 T00170013  RH  098%=      5-min Rain = 0
KCL2 141023Z 34003KT 01/01 A3015 RMK A01 T00140011  RH  098%=      5-min Rain = 0
KCL2 141024Z 33004KT 01/01 A3015 RMK A01 T00130009  RH  097%=      5-min Rain = 0
KCL2 141025Z 32004KT 01/01 A3015 RMK A01 T00120009  RH  098%=      5-min Rain = 0
KCL2 141026Z 32004KT 01/01 A3015 RMK A01 T00140010  RH  098%=      5-min Rain = 0
KCL2 141027Z 32004KT 01/01 A3015 RMK A01 T00140011  RH  098%=      5-min Rain = 0
KCL2 141028Z 32004KT 01/01 A3015 RMK A01 T00140011  RH  098%=      5-min Rain = 0
KCL2 141029Z 32004KT 01/01 A3015 RMK A01 T00140011  RH  098%=      5-min Rain = 0
KCL2 141030Z 32004KT 01/01 A3015 RMK A01 T00140012  RH  098%=      5-min Rain = 0
KCL2 141031Z 32004KT 02/01 A3015 RMK A01 T00150012  RH  098%=      5-min Rain = 0
KCL2 141032Z 32004KT 02/01 A3015 RMK A01 T00150012  RH  098%=      5-min Rain = 0
KCL2 141033Z 32005KT 02/01 A3015 RMK A01 T00160013  RH  098%=      5-min Rain = 0
KCL2 141034Z 32005KT 02/01 A3015 RMK A01 T00160014  RH  098%=      5-min Rain = 0
KCL2 141035Z 33005KT 02/01 A3015 RMK A01 T00160013  RH  098%=      5-min Rain = 0
KCL2 141036Z 33005KT 02/01 A3015 RMK A01 T00160014  RH  098%=      5-min Rain = 0
KCL2 141037Z 33005KT 02/01 A3015 RMK A01 T00160013  RH  098%=      5-min Rain = 0
KCL2 141038Z 33005KT 02/01 A3015 RMK A01 T00160013  RH  098%=      5-min Rain = 0
KCL2 141039Z 33005KT 02/01 A3015 RMK A01 T00150012  RH  098%=      5-min Rain = 0
KCL2 141040Z 33004KT 01/01 A3015 RMK A01 T00140011  RH  098%=      5-min Rain = 0
KCL2 141041Z 33004KT 01/01 A3015 RMK A01 T00140010  RH  098%=      5-min Rain = 0
KCL2 141042Z 33004KT 01/01 A3015 RMK A01 T00130010  RH  098%=      5-min Rain = 0
KCL2 141043Z 34004KT 01/01 A3015 RMK A01 T00130010  RH  098%=      5-min Rain = 0
KCL2 141044Z 33004KT 01/01 A3015 RMK A01 T00130010  RH  098%=      5-min Rain = 0
KCL2 141045Z 33004KT 01/01 A3015 RMK A01 T00130010  RH  098%=      5-min Rain = 0
KCL2 141046Z 33004KT 01/01 A3015 RMK A01 T00130010  RH  098%=      5-min Rain = 0
KCL2 141047Z 34004KT 01/01 A3015 RMK A01 T00140011  RH  098%=      5-min Rain = 0
KCL2 141048Z 34004KT 01/01 A3015 RMK A01 T00130010  RH  098%=      5-min Rain = 0
KCL2 141049Z 34004KT 01/01 A3015 RMK A01 T00120009  RH  098%=      5-min Rain = 0
KCL2 141050Z 34004KT 01/01 A3015 RMK A01 T00120009  RH  098%=      5-min Rain = 0
KCL2 141051Z 34005KT 01/01 A3015 RMK A01 T00120009  RH  098%=      5-min Rain = 0
KCL2 141052Z 34005KT 01/01 A3015 RMK A01 T00120009  RH  098%=      5-min Rain = 0
KCL2 141053Z 35005KT 01/01 A3015 RMK A01 T00120009  RH  098%=      5-min Rain = 0
KCL2 141054Z 35004KT 01/01 A3015 RMK A01 T00110008  RH  098%=      5-min Rain = 0
KCL2 141055Z 35004KT 01/01 A3015 RMK A01 T00120009  RH  098%=      5-min Rain = 0
KCL2 141056Z 35004KT 01/01 A3015 RMK A01 T00120010  RH  098%=      5-min Rain = 0
KCL2 141057Z 35004KT 01/01 A3015 RMK A01 T00130010  RH  098%=      5-min Rain = 0
KCL2 141058Z 35004KT 01/01 A3016 RMK A01 T00140011  RH  098%=      5-min Rain = 0
KCL2 141059Z 35003KT 01/01 A3016 RMK A01 T00140012  RH  098%=      5-min Rain = 0
KCL2 141100Z 35003KT 02/01 A3016 RMK A01 T00150012  RH  098%=      5-min Rain = 0
KCL2 141101Z 35003KT 01/01 A3016 RMK A01 T00140012  RH  098%=      5-min Rain = 0
KCL2 141102Z 35003KT 01/01 A3016 RMK A01 T00140011  RH  098%=      5-min Rain = 0
KCL2 141103Z 35003KT 01/01 A3016 RMK A01 T00140011  RH  098%=      5-min Rain = 0
KCL2 141104Z 35003KT 01/01 A3016 RMK A01 T00140011  RH  098%=      5-min Rain = 0
KCL2 141105Z 00003KT 01/01 A3016 RMK A01 T00140011  RH  098%=      5-min Rain = 0
KCL2 141106Z 01003KT 01/01 A3016 RMK A01 T00140012  RH  098%=      5-min Rain = 0
KCL2 141107Z 01002KT 02/01 A3016 RMK A01 T00150012  RH  098%=      5-min Rain = 0
KCL2 141108Z 02002KT 02/01 A3016 RMK A01 T00150012  RH  098%=      5-min Rain = 0
KCL2 141109Z 04002KT 01/01 A3016 RMK A01 T00140012  RH  098%=      5-min Rain = 0
KCL2 141110Z 04002KT 02/01 A3016 RMK A01 T00150012  RH  098%=      5-min Rain = 0
KCL2 141111Z 04002KT 01/01 A3016 RMK A01 T00140012  RH  098%=      5-min Rain = 0
KCL2 141112Z 03002KT 01/01 A3016 RMK A01 T00140012  RH  098%=      5-min Rain = 0
KCL2 141113Z 04002KT 01/01 A3016 RMK A01 T00140012  RH  098%=      5-min Rain = 0
KCL2 141114Z 03002KT 01/01 A3016 RMK A01 T00140012  RH  098%=      5-min Rain = 0
KCL2 141115Z 03001KT 01/01 A3016 RMK A01 T00140012  RH  098%=      5-min Rain = 0
KCL2 141116Z 04001KT 02/01 A3016 RMK A01 T00150013  RH  098%=      5-min Rain = 0
KCL2 141117Z 06001KT 02/01 A3016 RMK A01 T00160013  RH  098%=      5-min Rain = 0
KCL2 141118Z 07001KT 02/01 A3016 RMK A01 T00160014  RH  098%=      5-min Rain = 0
KCL2 141119Z 08001KT 02/01 A3016 RMK A01 T00160014  RH  098%=      5-min Rain = 0
KCL2 141120Z 09001KT 02/01 A3016 RMK A01 T00160014  RH  098%=      5-min Rain = 0
KCL2 141121Z 09002KT 01/01 A3016 RMK A01 T00130010  RH  098%=      5-min Rain = 0
KCL2 141122Z 10002KT 01/01 A3017 RMK A01 T00090006  RH  098%=      5-min Rain = 0
KCL2 141123Z 10002KT 01/01 A3017 RMK A01 T00080005  RH  098%=      5-min Rain = 0
KCL2 141124Z 10002KT 01/01 A3017 RMK A01 T00090006  RH  098%=      5-min Rain = 0
KCL2 141125Z 11002KT 01/01 A3017 RMK A01 T00100007  RH  098%=      5-min Rain = 0
KCL2 141126Z 11002KT 01/01 A3017 RMK A01 T00110008  RH  098%=      5-min Rain = 0
KCL2 141127Z 12003KT 01/01 A3017 RMK A01 T00120009  RH  098%=      5-min Rain = 0
KCL2 141128Z 12003KT 01/01 A3017 RMK A01 T00120010  RH  098%=      5-min Rain = 0
KCL2 141129Z 12003KT 01/01 A3017 RMK A01 T00130010  RH  098%=      5-min Rain = 0
KCL2 141130Z 13003KT 01/01 A3017 RMK A01 T00110009  RH  098%=      5-min Rain = 0
KCL2 141131Z 13003KT 01/01 A3017 RMK A01 T00100008  RH  098%=      5-min Rain = 0
KCL2 141132Z 13003KT 01/01 A3017 RMK A01 T00100007  RH  098%=      5-min Rain = 0
KCL2 141133Z 13002KT 01/01 A3017 RMK A01 T00080005  RH  098%=      5-min Rain = 0
KCL2 141134Z 12002KT 01/01 A3017 RMK A01 T00080005  RH  098%=      5-min Rain = 0
KCL2 141135Z 12002KT 01/01 A3017 RMK A01 T00080005  RH  098%=      5-min Rain = 0
KCL2 141136Z 12002KT 01/01 A3017 RMK A01 T00080006  RH  098%=      5-min Rain = 0
KCL2 141137Z 12002KT 01/01 A3017 RMK A01 T00090006  RH  098%=      5-min Rain = 0
KCL2 141138Z 12002KT 01/01 A3018 RMK A01 T00090007  RH  098%=      5-min Rain = 0
KCL2 141139Z 12001KT 01/01 A3018 RMK A01 T00090006  RH  098%=      5-min Rain = 0
KCL2 141140Z 11001KT 01/01 A3018 RMK A01 T00090006  RH  098%=      5-min Rain = 0
KCL2 141141Z 08001KT 01/01 A3018 RMK A01 T00090006  RH  098%=      5-min Rain = 0
KCL2 141142Z 07001KT 01/01 A3018 RMK A01 T00090007  RH  098%=      5-min Rain = 0
KCL2 141143Z 06001KT 01/01 A3018 RMK A01 T00100007  RH  098%=      5-min Rain = 0
KCL2 141144Z 05001KT 01/01 A3018 RMK A01 T00100007  RH  098%=      5-min Rain = 0
KCL2 141145Z 04001KT 01/01 A3018 RMK A01 T00100007  RH  098%=      5-min Rain = 0
KCL2 141146Z 03001KT 01/01 A3018 RMK A01 T00100007  RH  098%=      5-min Rain = 0
KCL2 141147Z 03002KT 01/01 A3018 RMK A01 T00100007  RH  098%=      5-min Rain = 0
KCL2 141148Z 03001KT 01/01 A3018 RMK A01 T00100007  RH  098%=      5-min Rain = 0
KCL2 141149Z 03002KT 01/01 A3018 RMK A01 T00090006  RH  098%=      5-min Rain = 0
KCL2 141150Z 02002KT 01/01 A3018 RMK A01 T00080005  RH  098%=      5-min Rain = 0
KCL2 141151Z 02002KT 01/01 A3018 RMK A01 T00080005  RH  098%=      5-min Rain = 0
KCL2 141152Z 01002KT 01/01 A3018 RMK A01 T00070005  RH  098%=      5-min Rain = 0
KCL2 141153Z 00003KT 01/01 A3018 RMK A01 T00070005  RH  098%=      5-min Rain = 0
KCL2 141154Z 00003KT 01/01 A3018 RMK A01 T00070005  RH  098%=      5-min Rain = 0
KCL2 141155Z 00003KT 01/01 A3018 RMK A01 T00070005  RH  098%=      5-min Rain = 0
KCL2 141156Z 00003KT 01/01 A3018 RMK A01 T00070005  RH  098%=      5-min Rain = 0
KCL2 141157Z 00003KT 01/00 A3018 RMK A01 T00070004  RH  098%=      5-min Rain = 0
KCL2 141158Z 00003KT 01/00 A3018 RMK A01 T00070004  RH  098%=      5-min Rain = 0
KCL2 141159Z 00003KT 01/00 A3018 RMK A01 T00050003  RH  098%=      5-min Rain = 0
KCL2 141200Z 01003KT 01/00 A3018 RMK A01 T00050002  RH  098%=      5-min Rain = 0
KCL2 141201Z 01003KT 00/00 A3018 RMK A01 T00040002  RH  098%=      5-min Rain = 0
KCL2 141202Z 01003KT 00/00 A3018 RMK A01 T00030001  RH  098%=      5-min Rain = 0
KCL2 141203Z 01003KT 00/00 A3019 RMK A01 T00030000  RH  098%=      5-min Rain = 0
KCL2 141204Z 01003KT 00/00 A3019 RMK A01 T000300-0  RH  098%=      5-min Rain = 0
KCL2 141205Z 01003KT 00/00 A3019 RMK A01 T00030000  RH  098%=      5-min Rain = 0
KCL2 141206Z 02003KT 00/00 A3019 RMK A01 T00030001  RH  098%=      5-min Rain = 0
KCL2 141207Z 02003KT 00/00 A3019 RMK A01 T00040002  RH  098%=      5-min Rain = 0
KCL2 141208Z 01003KT 01/00 A3019 RMK A01 T00050003  RH  099%=      5-min Rain = 0
KCL2 141209Z 01003KT 01/00 A3019 RMK A01 T00050003  RH  099%=      5-min Rain = 0
KCL2 141210Z 01002KT 01/00 A3019 RMK A01 T00060004  RH  099%=      5-min Rain = 0
KCL2 141211Z 01003KT 01/00 A3019 RMK A01 T00060004  RH  099%=      5-min Rain = 0
KCL2 141212Z 01002KT 01/01 A3019 RMK A01 T00070005  RH  099%=      5-min Rain = 0
KCL2 141213Z 00003KT 01/00 A3019 RMK A01 T00060004  RH  099%=      5-min Rain = 0
KCL2 141214Z 00003KT 01/01 A3019 RMK A01 T00070005  RH  099%=      5-min Rain = 0
KCL2 141215Z 00003KT 01/01 A3019 RMK A01 T00070005  RH  099%=      5-min Rain = 0
KCL2 141216Z 36003KT 01/01 A3019 RMK A01 T00070005  RH  099%=      5-min Rain = 0
KCL2 141217Z 36003KT 01/01 A3019 RMK A01 T00070005  RH  099%=      5-min Rain = 0
KCL2 141218Z 36004KT 01/00 A3019 RMK A01 T00060004  RH  099%=      5-min Rain = 0
KCL2 141219Z 00004KT 01/00 A3019 RMK A01 T00050002  RH  098%=      5-min Rain = 0
KCL2 141220Z 00004KT 00/M00 A3019 RMK A01 T00021001  RH  098%=      5-min Rain = 0
KCL2 141221Z 01004KT 00/00 A3019 RMK A01 T000000-2  RH  098%=      5-min Rain = 0
KCL2 141222Z 01004KT M00/M00 A3019 RMK A01 T10011004  RH  098%=      5-min Rain = 0
KCL2 141223Z 00004KT M00/M00 A3019 RMK A01 T10011004  RH  098%=      5-min Rain = 0
KCL2 141224Z 01004KT M00/M01 A3019 RMK A01 T10021005  RH  098%=      5-min Rain = 0
KCL2 141225Z 00004KT M00/M01 A3019 RMK A01 T10031005  RH  098%=      5-min Rain = 0
KCL2 141226Z 36004KT M00/M01 A3019 RMK A01 T10031005  RH  098%=      5-min Rain = 0
KCL2 141227Z 36004KT M00/M01 A3019 RMK A01 T10021005  RH  098%=      5-min Rain = 0
KCL2 141228Z 36004KT M00/M00 A3019 RMK A01 T10021004  RH  098%=      5-min Rain = 0
KCL2 141229Z 36004KT M00/M01 A3019 RMK A01 T10031005  RH  098%=      5-min Rain = 0
KCL2 141230Z 01004KT M00/M01 A302 RMK A01 T10031006  RH  098%=      5-min Rain = 0
KCL2 141231Z 00003KT M00/M01 A302 RMK A01 T10031006  RH  098%=      5-min Rain = 0
KCL2 141232Z 01003KT M00/M01 A302 RMK A01 T10031005  RH  098%=      5-min Rain = 0
KCL2 141233Z 01003KT M00/M01 A302 RMK A01 T10031005  RH  098%=      5-min Rain = 0
KCL2 141234Z 01003KT M00/M00 A302 RMK A01 T10021004  RH  099%=      5-min Rain = 0
KCL2 141235Z 01003KT M00/M00 A302 RMK A01 T10011003  RH  099%=      5-min Rain = 0
KCL2 141236Z 02002KT 00/M00 A302 RMK A01 T00011001  RH  099%=      5-min Rain = 0
KCL2 141237Z 02003KT 00/00 A302 RMK A01 T000200-0  RH  099%=      5-min Rain = 0
KCL2 141238Z 02003KT 00/00 A302 RMK A01 T000200-0  RH  099%=      5-min Rain = 0
KCL2 141239Z 01003KT 00/00 A302 RMK A01 T00020000  RH  099%=      5-min Rain = 0
KCL2 141240Z 01004KT 00/00 A302 RMK A01 T00030001  RH  099%=      5-min Rain = 0
KCL2 141241Z 01004KT 00/00 A302 RMK A01 T00030001  RH  099%=      5-min Rain = 0
KCL2 141242Z 01004KT 00/00 A302 RMK A01 T00030001  RH  099%=      5-min Rain = 0
KCL2 141243Z 01004KT 00/00 A302 RMK A01 T00030001  RH  099%=      5-min Rain = 0
KCL2 141244Z 02004KT 00/00 A302 RMK A01 T00030001  RH  099%=      5-min Rain = 0
KCL2 141245Z 01004KT 00/00 A302 RMK A01 T00020000  RH  099%=      5-min Rain = 0
KCL2 141246Z 02004KT 00/00 A302 RMK A01 T00020000  RH  099%=      5-min Rain = 0
KCL2 141247Z 01004KT 00/00 A302 RMK A01 T00020000  RH  099%=      5-min Rain = 0
KCL2 141248Z 02005KT 00/00 A302 RMK A01 T000200-0  RH  099%=      5-min Rain = 0
KCL2 141249Z 02005KT 00/M00 A302 RMK A01 T00011001  RH  099%=      5-min Rain = 0
KCL2 141250Z 01006KT 00/M00 A302 RMK A01 T00011001  RH  099%=      5-min Rain = 0
KCL2 141251Z 01005KT 00/M00 A302 RMK A01 T00011001  RH  099%=      5-min Rain = 0
KCL2 141252Z 01006KT 00/00 A302 RMK A01 T000200-0  RH  099%=      5-min Rain = 0
KCL2 141253Z 01006KT 00/00 A302 RMK A01 T000200-0  RH  099%=      5-min Rain = 0
KCL2 141254Z 01005KT 00/00 A302 RMK A01 T00020000  RH  099%=      5-min Rain = 0
KCL2 141255Z 01005KT 00/00 A302 RMK A01 T00030001  RH  099%=      5-min Rain = 0
KCL2 141256Z 02005KT 00/00 A3021 RMK A01 T00030002  RH  099%=      5-min Rain = 0
KCL2 141257Z 01005KT 00/00 A3021 RMK A01 T00040002  RH  099%=      5-min Rain = 0
KCL2 141258Z 02005KT 00/00 A3021 RMK A01 T00040003  RH  099%=      5-min Rain = 0
KCL2 141259Z 02005KT 00/00 A3021 RMK A01 T00040003  RH  099%=      5-min Rain = 0
KCL2 141300Z 02005KT 00/00 A3021 RMK A01 T00040002  RH  099%=      5-min Rain = 0
KCL2 141301Z 02005KT 00/00 A3021 RMK A01 T00040003  RH  099%=      5-min Rain = 0
KCL2 141302Z 02005KT 01/00 A3021 RMK A01 T00050003  RH  099%=      5-min Rain = 0
KCL2 141303Z 02005KT 00/00 A3021 RMK A01 T00040002  RH  099%=      5-min Rain = 0
KCL2 141304Z 02006KT 00/00 A3021 RMK A01 T00040003  RH  099%=      5-min Rain = 0
KCL2 141305Z 02006KT 01/00 A3021 RMK A01 T00060004  RH  099%=      5-min Rain = 0
KCL2 141306Z 02006KT 01/01 A3021 RMK A01 T00060005  RH  099%=      5-min Rain = 0
KCL2 141307Z 02005KT 01/01 A3021 RMK A01 T00070005  RH  099%=      5-min Rain = 0
KCL2 141308Z 02006KT 01/01 A3021 RMK A01 T00070005  RH  099%=      5-min Rain = 0
KCL2 141309Z 02005KT 01/01 A3021 RMK A01 T00070005  RH  099%=      5-min Rain = 0
KCL2 141310Z 02006KT 01/01 A3021 RMK A01 T00080006  RH  099%=      5-min Rain = 0
KCL2 141311Z 02006KT 01/01 A3021 RMK A01 T00090007  RH  099%=      5-min Rain = 0
KCL2 141312Z 02007KT 01/01 A3021 RMK A01 T00090008  RH  099%=      5-min Rain = 0
KCL2 141313Z 02006KT 01/01 A3022 RMK A01 T00100008  RH  099%=      5-min Rain = 0
KCL2 141314Z 02007KT 01/01 A3022 RMK A01 T00110009  RH  099%=      5-min Rain = 0
KCL2 141315Z 02007KT 01/01 A3022 RMK A01 T00110009  RH  099%=      5-min Rain = 0
KCL2 141316Z 02007KT 01/01 A3022 RMK A01 T00120010  RH  099%=      5-min Rain = 0
KCL2 141317Z 02005KT 01/01 A3022 RMK A01 T00130011  RH  098%=      5-min Rain = 0
KCL2 141318Z 02006KT 01/01 A3022 RMK A01 T00130011  RH  098%=      5-min Rain = 0
KCL2 141319Z 02005KT 01/01 A3022 RMK A01 T00130011  RH  098%=      5-min Rain = 0
KCL2 141320Z 02005KT 01/01 A3022 RMK A01 T00140011  RH  098%=      5-min Rain = 0
KCL2 141321Z 03005KT 01/01 A3022 RMK A01 T00140011  RH  098%=      5-min Rain = 0
KCL2 141322Z 03005KT 02/01 A3022 RMK A01 T00150012  RH  098%=      5-min Rain = 0
KCL2 141323Z 03005KT 02/01 A3022 RMK A01 T00160012  RH  098%=      5-min Rain = 0
KCL2 141324Z 03004KT 02/01 A3022 RMK A01 T00170013  RH  097%=      5-min Rain = 0
KCL2 141325Z 03004KT 02/01 A3022 RMK A01 T00170013  RH  097%=      5-min Rain = 0
KCL2 141326Z 03005KT 02/01 A3023 RMK A01 T00170013  RH  097%=      5-min Rain = 0
KCL2 141327Z 03005KT 02/01 A3023 RMK A01 T00180013  RH  097%=      5-min Rain = 0
KCL2 141328Z 03005KT 02/01 A3023 RMK A01 T00180013  RH  096%=      5-min Rain = 0
KCL2 141329Z 02004KT 02/01 A3023 RMK A01 T00190013  RH  096%=      5-min Rain = 0
KCL2 141330Z 02006KT 02/01 A3023 RMK A01 T00190013  RH  096%=      5-min Rain = 0
KCL2 141331Z 02005KT 02/01 A3023 RMK A01 T00200014  RH  096%=      5-min Rain = 0
KCL2 141332Z 02005KT 02/01 A3023 RMK A01 T00200014  RH  095%=      5-min Rain = 0
KCL2 141333Z 02005KT 02/01 A3023 RMK A01 T00210014  RH  095%=      5-min Rain = 0
KCL2 141334Z 02005KT 02/01 A3023 RMK A01 T00210013  RH  095%=      5-min Rain = 0
KCL2 141335Z 02005KT 02/01 A3023 RMK A01 T00210013  RH  095%=      5-min Rain = 0
KCL2 141336Z 02004KT 02/01 A3023 RMK A01 T00210013  RH  094%=      5-min Rain = 0
KCL2 141337Z 02005KT 02/01 A3023 RMK A01 T00210013  RH  094%=      5-min Rain = 0
KCL2 141338Z 02004KT 02/01 A3023 RMK A01 T00220013  RH  094%=      5-min Rain = 0
KCL2 141339Z 02005KT 02/01 A3023 RMK A01 T00220013  RH  094%=      5-min Rain = 0
KCL2 141340Z 01005KT 02/01 A3023 RMK A01 T00220014  RH  094%=      5-min Rain = 0
KCL2 141341Z 02005KT 02/01 A3023 RMK A01 T00230014  RH  094%=      5-min Rain = 0
KCL2 141342Z 02004KT 02/01 A3023 RMK A01 T00230014  RH  094%=      5-min Rain = 0
KCL2 141343Z 02005KT 02/01 A3024 RMK A01 T00230014  RH  094%=      5-min Rain = 0
KCL2 141344Z 01005KT 02/02 A3024 RMK A01 T00240015  RH  094%=      5-min Rain = 0
KCL2 141345Z 02003KT 02/02 A3024 RMK A01 T00240015  RH  093%=      5-min Rain = 0
KCL2 141346Z 02005KT 03/02 A3024 RMK A01 T00250015  RH  093%=      5-min Rain = 0
KCL2 141347Z 01005KT 03/02 A3024 RMK A01 T00260015  RH  093%=      5-min Rain = 0
KCL2 141348Z 02005KT 03/02 A3024 RMK A01 T00260016  RH  093%=      5-min Rain = 0
KCL2 141349Z 02004KT 03/02 A3024 RMK A01 T00260016  RH  093%=      5-min Rain = 0
KCL2 141350Z 02005KT 03/02 A3024 RMK A01 T00270016  RH  092%=      5-min Rain = 0
KCL2 141351Z 02007KT 03/02 A3024 RMK A01 T00280016  RH  092%=      5-min Rain = 0
KCL2 141352Z 02007KT 03/02 A3024 RMK A01 T00280016  RH  092%=      5-min Rain = 0
KCL2 141353Z 02006KT 03/02 A3025 RMK A01 T00290016  RH  091%=      5-min Rain = 0
KCL2 141354Z 02005KT 03/02 A3025 RMK A01 T00290015  RH  091%=      5-min Rain = 0
KCL2 141355Z 02006KT 03/02 A3025 RMK A01 T00290015  RH  091%=      5-min Rain = 0
KCL2 141356Z 02005KT 03/02 A3025 RMK A01 T00300015  RH  090%=      5-min Rain = 0
KCL2 141357Z 02005KT 03/02 A3025 RMK A01 T00300015  RH  090%=      5-min Rain = 0
KCL2 141358Z 01005KT 03/02 A3025 RMK A01 T00300016  RH  090%=      5-min Rain = 0
KCL2 141359Z 01006KT 03/02 A3025 RMK A01 T00310016  RH  090%=      5-min Rain = 0
KCL2 141400Z 01005KT 03/02 A3025 RMK A01 T00310016  RH  090%=      5-min Rain = 0
KCL2 141401Z 00006KT 03/02 A3025 RMK A01 T00310016  RH  090%=      5-min Rain = 0
KCL2 141402Z 36005KT 03/02 A3025 RMK A01 T00310016  RH  090%=      5-min Rain = 0
KCL2 141403Z 34005KT 03/02 A3025 RMK A01 T00320016  RH  090%=      5-min Rain = 0
KCL2 141404Z 33006KT 03/02 A3026 RMK A01 T00320018  RH  090%=      5-min Rain = 0
KCL2 141405Z 33006KT 03/02 A3026 RMK A01 T00320017  RH  090%=      5-min Rain = 0
KCL2 141406Z 34005KT 03/02 A3026 RMK A01 T00310016  RH  090%=      5-min Rain = 0
KCL2 141407Z 35006KT 03/02 A3026 RMK A01 T00310016  RH  090%=      5-min Rain = 0
KCL2 141408Z 34005KT 03/02 A3026 RMK A01 T00300015  RH  090%=      5-min Rain = 0
KCL2 141409Z 33005KT 03/02 A3026 RMK A01 T00300015  RH  090%=      5-min Rain = 0
KCL2 141410Z 34004KT 03/02 A3026 RMK A01 T00290016  RH  091%=      5-min Rain = 0
KCL2 141411Z 32005KT 03/02 A3026 RMK A01 T00290016  RH  091%=      5-min Rain = 0
KCL2 141412Z 32005KT 03/01 A3026 RMK A01 T00280014  RH  090%=      5-min Rain = 0
KCL2 141413Z 32005KT 03/01 A3026 RMK A01 T00270012  RH  090%=      5-min Rain = 0
KCL2 141414Z 32005KT 03/01 A3026 RMK A01 T00250011  RH  090%=      5-min Rain = 0
KCL2 141415Z 32005KT 03/01 A3026 RMK A01 T00250011  RH  091%=      5-min Rain = 0
KCL2 141416Z 32005KT 02/01 A3027 RMK A01 T00240011  RH  091%=      5-min Rain = 0
KCL2 141417Z 32005KT 02/01 A3027 RMK A01 T00230011  RH  091%=      5-min Rain = 0
KCL2 141418Z 33005KT 02/01 A3027 RMK A01 T00240012  RH  092%=      5-min Rain = 0
KCL2 141419Z 33005KT 02/01 A3027 RMK A01 T00230012  RH  092%=      5-min Rain = 0
KCL2 141420Z 34005KT 02/01 A3027 RMK A01 T00230012  RH  092%=      5-min Rain = 0
KCL2 141421Z 33004KT 02/01 A3027 RMK A01 T00230011  RH  092%=      5-min Rain = 0
KCL2 141422Z 34005KT 02/01 A3027 RMK A01 T00230012  RH  093%=      5-min Rain = 0
KCL2 141423Z 33005KT 02/01 A3027 RMK A01 T00230012  RH  093%=      5-min Rain = 0
KCL2 141424Z 33005KT 02/01 A3027 RMK A01 T00230013  RH  093%=      5-min Rain = 0
KCL2 141425Z 34007KT 02/01 A3027 RMK A01 T00240013  RH  093%=      5-min Rain = 0
KCL2 141426Z 33006KT 02/01 A3027 RMK A01 T00230012  RH  092%=      5-min Rain = 0
KCL2 141427Z 33007KT 02/01 A3027 RMK A01 T00210010  RH  092%=      5-min Rain = 0
KCL2 141428Z 33007KT 02/01 A3027 RMK A01 T00200009  RH  092%=      5-min Rain = 0
KCL2 141429Z 33007KT 02/01 A3027 RMK A01 T00190009  RH  093%=      5-min Rain = 0
KCL2 141430Z 33005KT 02/01 A3027 RMK A01 T00190009  RH  093%=      5-min Rain = 0
KCL2 141431Z 33005KT 02/01 A3027 RMK A01 T00190010  RH  094%=      5-min Rain = 0
KCL2 141432Z 33005KT 02/01 A3027 RMK A01 T00190011  RH  094%=      5-min Rain = 0
KCL2 141433Z 34006KT 02/01 A3028 RMK A01 T00200011  RH  094%=      5-min Rain = 0
KCL2 141434Z 34005KT 02/01 A3028 RMK A01 T00200012  RH  094%=      5-min Rain = 0
KCL2 141435Z 34006KT 02/01 A3028 RMK A01 T00210013  RH  094%=      5-min Rain = 0
KCL2 141436Z 34006KT 02/01 A3028 RMK A01 T00210012  RH  094%=      5-min Rain = 0
KCL2 141437Z 34006KT 02/01 A3028 RMK A01 T00210012  RH  094%=      5-min Rain = 0
KCL2 141438Z 34007KT 02/01 A3028 RMK A01 T00220013  RH  094%=      5-min Rain = 0
KCL2 141439Z 34007KT 02/01 A3028 RMK A01 T00210012  RH  094%=      5-min Rain = 0
KCL2 141440Z 35006KT 02/01 A3028 RMK A01 T00210012  RH  093%=      5-min Rain = 0
KCL2 141441Z 34007KT 02/01 A3028 RMK A01 T00210011  RH  093%=      5-min Rain = 0
KCL2 141442Z 34006KT 02/01 A3028 RMK A01 T00210012  RH  093%=      5-min Rain = 0
KCL2 141443Z 34007KT 02/01 A3028 RMK A01 T00220013  RH  093%=      5-min Rain = 0
KCL2 141444Z 34007KT 02/01 A3028 RMK A01 T00230012  RH  093%=      5-min Rain = 0
KCL2 141445Z 34007KT 02/01 A3028 RMK A01 T00230012  RH  093%=      5-min Rain = 0
KCL2 141446Z 34006KT 02/01 A3028 RMK A01 T00230012  RH  092%=      5-min Rain = 0
KCL2 141447Z 34006KT 02/01 A3028 RMK A01 T00240012  RH  092%=      5-min Rain = 0
KCL2 141448Z 34007KT 02/01 A3028 RMK A01 T00240013  RH  092%=      5-min Rain = 0
KCL2 141449Z 34007KT 02/01 A3029 RMK A01 T00240012  RH  091%=      5-min Rain = 0
KCL2 141450Z 34007KT 03/01 A3029 RMK A01 T00250013  RH  091%=      5-min Rain = 0
KCL2 141451Z 34008KT 03/01 A3029 RMK A01 T00260012  RH  091%=      5-min Rain = 0
KCL2 141452Z 35007KT 03/01 A3029 RMK A01 T00260013  RH  091%=      5-min Rain = 0
KCL2 141453Z 34007KT 03/01 A3029 RMK A01 T00270014  RH  091%=      5-min Rain = 0
KCL2 141454Z 35006KT 03/02 A3029 RMK A01 T00300016  RH  091%=      5-min Rain = 0
KCL2 141455Z 35006KT 03/02 A3029 RMK A01 T00310017  RH  091%=      5-min Rain = 0
KCL2 141456Z 34007KT 03/02 A3029 RMK A01 T00320017  RH  090%=      5-min Rain = 0
KCL2 141457Z 34008KT 03/02 A3029 RMK A01 T00320016  RH  089%=      5-min Rain = 0
KCL2 141458Z 35007KT 03/02 A3029 RMK A01 T00330016  RH  088%=      5-min Rain = 0
KCL2 141459Z 35008KT 03/02 A3029 RMK A01 T00340016  RH  088%=      5-min Rain = 0
KCL2 141500Z 35007KT 04/02 A3029 RMK A01 T00350016  RH  088%=      5-min Rain = 0
KCL2 141501Z 01007KT 04/02 A3029 RMK A01 T00360019  RH  088%=      5-min Rain = 0
KCL2 141502Z 01009KT 04/02 A3029 RMK A01 T00390020  RH  088%=      5-min Rain = 0
KCL2 141503Z 00009KT 04/02 A3029 RMK A01 T00410017  RH  084%=      5-min Rain = 0
KCL2 141504Z 00010KT 04/01 A3029 RMK A01 T00410013  RH  082%=      5-min Rain = 0
KCL2 141505Z 01009KT 04/01 A3029 RMK A01 T00430013  RH  081%=      5-min Rain = 0
KCL2 141506Z 36009G14KT 04/01 A3029 RMK A01 T00440014  RH  081%=      5-min Rain = 0
KCL2 141507Z 36011KT 05/01 A3029 RMK A01 T00450013  RH  080%=      5-min Rain = 0
KCL2 141508Z 01010KT 05/01 A3029 RMK A01 T00450011  RH  079%=      5-min Rain = 0
KCL2 141509Z 00009KT 05/01 A3029 RMK A01 T00450012  RH  079%=      5-min Rain = 0
KCL2 141510Z 00009KT 05/01 A3029 RMK A01 T00470014  RH  079%=      5-min Rain = 0
KCL2 141511Z 36009KT 05/01 A303 RMK A01 T00480014  RH  078%=      5-min Rain = 0
KCL2 141512Z 01009KT 05/01 A303 RMK A01 T00490012  RH  077%=      5-min Rain = 0
KCL2 141513Z 02012KT 05/01 A303 RMK A01 T00500009  RH  074%=      5-min Rain = 0
KCL2 141514Z 01009KT 05/00 A303 RMK A01 T00510003  RH  072%=      5-min Rain = 0
KCL2 141515Z 01011KT 05/01 A303 RMK A01 T00520005  RH  072%=      5-min Rain = 0
KCL2 141516Z 01011KT 05/01 A303 RMK A01 T00530005  RH  071%=      5-min Rain = 0
KCL2 141517Z 01010KT 05/00 A303 RMK A01 T00530003  RH  070%=      5-min Rain = 0
KCL2 141518Z 01012KT 05/00 A303 RMK A01 T00530001  RH  069%=      5-min Rain = 0
KCL2 141519Z 01009KT 05/00 A303 RMK A01 T00530000  RH  069%=      5-min Rain = 0
KCL2 141520Z 02011KT 05/00 A303 RMK A01 T00540002  RH  069%=      5-min Rain = 0
KCL2 141521Z 02012KT 06/00 A303 RMK A01 T00550002  RH  068%=      5-min Rain = 0
KCL2 141522Z 02011KT 06/00 A303 RMK A01 T00560000  RH  067%=      5-min Rain = 0
KCL2 141523Z 02010KT 06/00 A303 RMK A01 T00570000  RH  067%=      5-min Rain = 0
KCL2 141524Z 02009KT 06/00 A3031 RMK A01 T00580001  RH  067%=      5-min Rain = 0
KCL2 141525Z 02010KT 06/00 A3031 RMK A01 T00600003  RH  067%=      5-min Rain = 0
KCL2 141526Z 01011G16KT 06/00 A303 RMK A01 T00610000  RH  065%=      5-min Rain = 0
KCL2 141527Z 01012KT 06/M00 A3031 RMK A01 T00621004  RH  063%=      5-min Rain = 0
KCL2 141528Z 01011KT 06/M01 A3031 RMK A01 T00621005  RH  062%=      5-min Rain = 0
KCL2 141529Z 02015KT 06/M01 A3031 RMK A01 T00611007  RH  062%=      5-min Rain = 0
KCL2 141530Z 03015KT 06/M01 A3031 RMK A01 T00621014  RH  058%=      5-min Rain = 0
KCL2 141531Z 03013KT 06/M02 A3031 RMK A01 T00631015  RH  058%=      5-min Rain = 0
KCL2 141532Z 03015KT 06/M01 A3031 RMK A01 T00631012  RH  059%=      5-min Rain = 0
KCL2 141533Z 03016KT 07/M01 A3031 RMK A01 T00651012  RH  058%=      5-min Rain = 0
KCL2 141534Z 03018KT 07/M02 A3031 RMK A01 T00651015  RH  057%=      5-min Rain = 0
KCL2 141535Z 03016G21KT 07/M02 A3031 RMK A01 T00651017  RH  056%=      5-min Rain = 0
KCL2 141536Z 03015KT 07/M02 A3031 RMK A01 T00661018  RH  055%=      5-min Rain = 0
KCL2 141537Z 03018KT 07/M02 A3031 RMK A01 T00661019  RH  054%=      5-min Rain = 0
KCL2 141538Z 03017KT 07/M02 A3031 RMK A01 T00661021  RH  054%=      5-min Rain = 0
KCL2 141539Z 02011G16KT 07/M02 A3031 RMK A01 T00661019  RH  055%=      5-min Rain = 0
KCL2 141540Z 02015KT 07/M02 A3031 RMK A01 T00681017  RH  055%=      5-min Rain = 0
KCL2 141541Z 02015KT 07/M02 A3032 RMK A01 T00681020  RH  053%=      5-min Rain = 0
KCL2 141542Z 02016KT 07/M02 A3032 RMK A01 T00671021  RH  053%=      5-min Rain = 0
KCL2 141543Z 02017KT 07/M02 A3032 RMK A01 T00671022  RH  053%=      5-min Rain = 0
KCL2 141544Z 02013G18KT 07/M02 A3032 RMK A01 T00671023  RH  053%=      5-min Rain = 0
KCL2 141545Z 02013G18KT 07/M02 A3032 RMK A01 T00681021  RH  053%=      5-min Rain = 0
KCL2 141546Z 02016KT 07/M02 A3032 RMK A01 T00701021  RH  052%=      5-min Rain = 0
KCL2 141547Z 02013G18KT 07/M02 A3032 RMK A01 T00701023  RH  052%=      5-min Rain = 0
KCL2 141548Z 03012KT 07/M02 A3032 RMK A01 T00701022  RH  052%=      5-min Rain = 0
KCL2 141549Z 03013G18KT 07/M02 A3032 RMK A01 T00721017  RH  053%=      5-min Rain = 0
KCL2 141550Z 03015KT 07/M02 A3032 RMK A01 T00731022  RH  051%=      5-min Rain = 0
KCL2 141551Z 03014KT 07/M02 A3032 RMK A01 T00731023  RH  051%=      5-min Rain = 0
KCL2 141552Z 03013KT 07/M02 A3032 RMK A01 T00731021  RH  051%=      5-min Rain = 0
KCL2 141553Z 03015KT 07/M02 A3032 RMK A01 T00741023  RH  050%=      5-min Rain = 0
KCL2 141554Z 03016KT 07/M02 A3032 RMK A01 T00731024  RH  050%=      5-min Rain = 0
KCL2 141555Z 03015KT 07/M03 A3032 RMK A01 T00731026  RH  050%=      5-min Rain = 0
KCL2 141556Z 04014KT 07/M03 A3032 RMK A01 T00721025  RH  050%=      5-min Rain = 0
KCL2 141557Z 04015KT 07/M02 A3033 RMK A01 T00741023  RH  050%=      5-min Rain = 0
KCL2 141558Z 04011KT 08/M02 A3033 RMK A01 T00751023  RH  050%=      5-min Rain = 0
KCL2 141559Z 03013KT 08/M02 A3033 RMK A01 T00761021  RH  050%=      5-min Rain = 0
KCL2 141600Z 02014KT 08/M02 A3033 RMK A01 T00771024  RH  049%=      5-min Rain = 0
KCL2 141601Z 02016KT 08/M03 A3033 RMK A01 T00761027  RH  048%=      5-min Rain = 0
KCL2 141602Z 02013KT 08/M03 A3033 RMK A01 T00751027  RH  048%=      5-min Rain = 0
KCL2 141603Z 03011KT 08/M03 A3033 RMK A01 T00751025  RH  049%=      5-min Rain = 0
KCL2 141604Z 03015KT 08/M02 A3033 RMK A01 T00781024  RH  049%=      5-min Rain = 0
KCL2 141605Z 03013KT 08/M03 A3033 RMK A01 T00781026  RH  048%=      5-min Rain = 0
KCL2 141606Z 03013KT 08/M03 A3033 RMK A01 T00781027  RH  047%=      5-min Rain = 0
KCL2 141607Z 03013KT 08/M03 A3033 RMK A01 T00771028  RH  048%=      5-min Rain = 0
KCL2 141608Z 03014KT 08/M03 A3033 RMK A01 T00771027  RH  048%=      5-min Rain = 0
KCL2 141609Z 02011KT 08/M03 A3033 RMK A01 T00781027  RH  047%=      5-min Rain = 0
KCL2 141610Z 03012KT 08/M03 A3033 RMK A01 T00791027  RH  047%=      5-min Rain = 0
KCL2 141611Z 02013KT 08/M03 A3033 RMK A01 T00811025  RH  047%=      5-min Rain = 0
KCL2 141612Z 03012KT 08/M02 A3033 RMK A01 T00831024  RH  047%=      5-min Rain = 0
KCL2 141613Z 03013KT 09/M02 A3033 RMK A01 T00851024  RH  046%=      5-min Rain = 0
KCL2 141614Z 04016KT 09/M03 A3034 RMK A01 T00851031  RH  044%=      5-min Rain = 0
KCL2 141615Z 03015KT 08/M03 A3034 RMK A01 T00831033  RH  044%=      5-min Rain = 0
KCL2 141616Z 04013KT 08/M03 A3034 RMK A01 T00831032  RH  044%=      5-min Rain = 0
KCL2 141617Z 03015KT 09/M03 A3034 RMK A01 T00861030  RH  044%=      5-min Rain = 0
KCL2 141618Z 03017KT 09/M04 A3034 RMK A01 T00851035  RH  043%=      5-min Rain = 0
KCL2 141619Z 03014KT 08/M03 A3034 RMK A01 T00831034  RH  043%=      5-min Rain = 0
KCL2 141620Z 03016KT 08/M03 A3034 RMK A01 T00841032  RH  044%=      5-min Rain = 0
KCL2 141621Z 03012KT 08/M03 A3034 RMK A01 T00841033  RH  044%=      5-min Rain = 0
KCL2 141622Z 04012KT 09/M03 A3034 RMK A01 T00871029  RH  044%=      5-min Rain = 0
KCL2 141623Z 05016KT 09/M03 A3034 RMK A01 T00881030  RH  043%=      5-min Rain = 0
KCL2 141624Z 05016KT 09/M04 A3034 RMK A01 T00861035  RH  042%=      5-min Rain = 0
KCL2 141625Z 05015KT 09/M04 A3034 RMK A01 T00851036  RH  042%=      5-min Rain = 0
KCL2 141626Z 05014KT 08/M03 A3034 RMK A01 T00831034  RH  043%=      5-min Rain = 0
KCL2 141627Z 04014KT 09/M03 A3034 RMK A01 T00851033  RH  043%=      5-min Rain = 0
KCL2 141628Z 03012KT 09/M03 A3034 RMK A01 T00861034  RH  043%=      5-min Rain = 0
KCL2 141629Z 05012KT 09/M03 A3034 RMK A01 T00871031  RH  043%=      5-min Rain = 0
KCL2 141630Z 04015KT 09/M03 A3034 RMK A01 T00881032  RH  043%=      5-min Rain = 0
KCL2 141631Z 03017KT 09/M03 A3034 RMK A01 T00861034  RH  042%=      5-min Rain = 0
KCL2 141632Z 04015KT 09/M04 A3034 RMK A01 T00861037  RH  042%=      5-min Rain = 0
KCL2 141633Z 04013KT 09/M04 A3034 RMK A01 T00861035  RH  042%=      5-min Rain = 0
KCL2 141634Z 04015KT 09/M03 A3034 RMK A01 T00871034  RH  042%=      5-min Rain = 0
KCL2 141635Z 04016KT 09/M04 A3034 RMK A01 T00871036  RH  042%=      5-min Rain = 0
KCL2 141636Z 05016KT 09/M04 A3034 RMK A01 T00871036  RH  042%=      5-min Rain = 0
KCL2 141637Z 04016KT 09/M04 A3034 RMK A01 T00861037  RH  042%=      5-min Rain = 0
KCL2 141638Z 03016KT 09/M04 A3034 RMK A01 T00861035  RH  042%=      5-min Rain = 0
KCL2 141639Z 04014KT 09/M04 A3034 RMK A01 T00871036  RH  042%=      5-min Rain = 0
KCL2 141640Z 04014KT 09/M04 A3034 RMK A01 T00881036  RH  041%=      5-min Rain = 0
KCL2 141641Z 04015KT 09/M04 A3034 RMK A01 T00871036  RH  042%=      5-min Rain = 0
KCL2 141642Z 04012KT 09/M03 A3034 RMK A01 T00871033  RH  042%=      5-min Rain = 0
KCL2 141643Z 05011KT 09/M03 A3034 RMK A01 T00891032  RH  042%=      5-min Rain = 0
KCL2 141644Z 04012KT 09/M03 A3034 RMK A01 T00901032  RH  042%=      5-min Rain = 0
KCL2 141645Z 03012KT 09/M03 A3034 RMK A01 T00901033  RH  042%=      5-min Rain = 0
KCL2 141646Z 04010KT 09/M03 A3034 RMK A01 T00911033  RH  041%=      5-min Rain = 0
KCL2 141647Z 04013KT 09/M03 A3034 RMK A01 T00941030  RH  042%=      5-min Rain = 0
KCL2 141648Z 04011KT 10/M03 A3034 RMK A01 T00951034  RH  040%=      5-min Rain = 0
KCL2 141649Z 04010KT 10/M03 A3034 RMK A01 T00951033  RH  041%=      5-min Rain = 0
KCL2 141650Z 03012KT 10/M03 A3034 RMK A01 T00961029  RH  041%=      5-min Rain = 0
KCL2 141651Z 03012KT 10/M03 A3034 RMK A01 T00971032  RH  040%=      5-min Rain = 0
KCL2 141652Z 03014KT 10/M03 A3034 RMK A01 T00961033  RH  040%=      5-min Rain = 0
KCL2 141653Z 03016KT 09/M04 A3034 RMK A01 T00941036  RH  040%=      5-min Rain = 0
KCL2 141654Z 03016KT 09/M04 A3034 RMK A01 T00931037  RH  040%=      5-min Rain = 0
KCL2 141655Z 03012KT 09/M04 A3034 RMK A01 T00941036  RH  040%=      5-min Rain = 0
KCL2 141656Z 03012KT 10/M03 A3034 RMK A01 T00961033  RH  040%=      5-min Rain = 0
KCL2 141657Z 03012KT 10/M04 A3034 RMK A01 T00971036  RH  039%=      5-min Rain = 0
KCL2 141658Z 04013KT 10/M04 A3035 RMK A01 T00961037  RH  039%=      5-min Rain = 0
KCL2 141659Z 05015KT 10/M04 A3035 RMK A01 T00961038  RH  039%=      5-min Rain = 0
KCL2 141700Z 05016KT 10/M04 A3035 RMK A01 T00951040  RH  038%=      5-min Rain = 0
KCL2 141701Z 05013KT 10/M04 A3035 RMK A01 T00951039  RH  038%=      5-min Rain = 0
KCL2 141702Z 04017KT 10/M04 A3035 RMK A01 T00971039  RH  038%=      5-min Rain = 0
KCL2 141703Z 05015KT 10/M04 A3035 RMK A01 T00961042  RH  038%=      5-min Rain = 0
KCL2 141704Z 05013KT 10/M04 A3035 RMK A01 T00951040  RH  038%=      5-min Rain = 0
KCL2 141705Z 05014KT 10/M04 A3035 RMK A01 T00961038  RH  038%=      5-min Rain = 0
KCL2 141706Z 05015KT 10/M04 A3035 RMK A01 T00961039  RH  038%=      5-min Rain = 0
KCL2 141707Z 05016KT 10/M04 A3035 RMK A01 T00961037  RH  039%=      5-min Rain = 0
KCL2 141708Z 04015KT 10/M04 A3035 RMK A01 T00951041  RH  038%=      5-min Rain = 0
KCL2 141709Z 05014KT 09/M04 A3035 RMK A01 T00931041  RH  039%=      5-min Rain = 0
KCL2 141710Z 05015KT 10/M04 A3035 RMK A01 T00951040  RH  038%=      5-min Rain = 0
KCL2 141711Z 05016KT 10/M04 A3035 RMK A01 T00971041  RH  038%=      5-min Rain = 0
KCL2 141712Z 04013KT 09/M04 A3035 RMK A01 T00941044  RH  037%=      5-min Rain = 0
KCL2 141713Z 05014KT 10/M04 A3035 RMK A01 T00951040  RH  038%=      5-min Rain = 0
KCL2 141714Z 05015KT 10/M04 A3035 RMK A01 T00961040  RH  038%=      5-min Rain = 0
KCL2 141715Z 04015KT 10/M04 A3035 RMK A01 T00971039  RH  038%=      5-min Rain = 0
KCL2 141716Z 04015KT 10/M04 A3035 RMK A01 T00991039  RH  038%=      5-min Rain = 0
KCL2 141717Z 05014KT 10/M04 A3035 RMK A01 T00991039  RH  038%=      5-min Rain = 0
KCL2 141718Z 05015KT 10/M04 A3035 RMK A01 T01001039  RH  037%=      5-min Rain = 0
KCL2 141719Z 04015KT 10/M04 A3035 RMK A01 T00991042  RH  037%=      5-min Rain = 0
KCL2 141720Z 03012KT 10/M04 A3035 RMK A01 T00981040  RH  037%=      5-min Rain = 0
KCL2 141721Z 03013KT 10/M04 A3035 RMK A01 T01011038  RH  038%=      5-min Rain = 0
KCL2 141722Z 02010KT 10/M04 A3035 RMK A01 T01011038  RH  037%=      5-min Rain = 0
KCL2 141723Z 02010KT 10/M04 A3035 RMK A01 T01031036  RH  037%=      5-min Rain = 0
KCL2 141724Z 04013KT 10/M04 A3035 RMK A01 T01031037  RH  037%=      5-min Rain = 0
KCL2 141725Z 04011KT 10/M04 A3035 RMK A01 T01041038  RH  037%=      5-min Rain = 0
KCL2 141726Z 04010KT 11/M04 A3035 RMK A01 T01051035  RH  037%=      5-min Rain = 0
KCL2 141727Z 04013KT 11/M04 A3035 RMK A01 T01081035  RH  036%=      5-min Rain = 0
KCL2 141728Z 03013KT 11/M04 A3035 RMK A01 T01071039  RH  036%=      5-min Rain = 0
KCL2 141729Z 03011KT 11/M04 A3035 RMK A01 T01061042  RH  035%=      5-min Rain = 0
KCL2 141730Z 03013KT 11/M04 A3035 RMK A01 T01081038  RH  036%=      5-min Rain = 0
KCL2 141731Z 03014KT 11/M04 A3035 RMK A01 T01081041  RH  035%=      5-min Rain = 0
KCL2 141732Z 04014KT 11/M04 A3035 RMK A01 T01061044  RH  035%=      5-min Rain = 0
KCL2 141733Z 04013KT 10/M04 A3035 RMK A01 T01031044  RH  035%=      5-min Rain = 0
KCL2 141734Z 04014KT 10/M04 A3035 RMK A01 T01031043  RH  036%=      5-min Rain = 0
KCL2 141735Z 04015KT 10/M04 A3035 RMK A01 T01021044  RH  036%=      5-min Rain = 0
KCL2 141736Z 05014KT 10/M04 A3035 RMK A01 T01021043  RH  036%=      5-min Rain = 0
KCL2 141737Z 06013KT 10/M04 A3035 RMK A01 T01041043  RH  035%=      5-min Rain = 0
KCL2 141738Z 05016KT 10/M04 A3035 RMK A01 T01041043  RH  035%=      5-min Rain = 0
KCL2 141739Z 04013KT 10/M04 A3035 RMK A01 T01041041  RH  036%=      5-min Rain = 0
KCL2 141740Z 02009KT 11/M04 A3035 RMK A01 T01061039  RH  036%=      5-min Rain = 0
KCL2 141741Z 03009KT 11/M04 A3035 RMK A01 T01071037  RH  036%=      5-min Rain = 0
KCL2 141742Z 05013KT 11/M04 A3035 RMK A01 T01081038  RH  036%=      5-min Rain = 0
KCL2 141743Z 03011G19KT 11/M04 A3035 RMK A01 T01091036  RH  036%=      5-min Rain = 0
KCL2 141744Z 03018KT 11/M04 A3035 RMK A01 T01121038  RH  035%=      5-min Rain = 0
KCL2 141745Z 02016KT 11/M04 A3035 RMK A01 T01091044  RH  034%=      5-min Rain = 0
KCL2 141746Z 03012G17KT 11/M04 A3035 RMK A01 T01061041  RH  035%=      5-min Rain = 0
KCL2 141747Z 03014G19KT 11/M04 A3035 RMK A01 T01081039  RH  035%=      5-min Rain = 0
KCL2 141748Z 02016KT 11/M04 A3035 RMK A01 T01101041  RH  034%=      5-min Rain = 0
KCL2 141749Z 02014KT 11/M04 A3035 RMK A01 T01071043  RH  035%=      5-min Rain = 0
KCL2 141750Z 02014KT 11/M04 A3035 RMK A01 T01061042  RH  035%=      5-min Rain = 0
KCL2 141751Z 02015KT 11/M04 A3035 RMK A01 T01061043  RH  035%=      5-min Rain = 0
KCL2 141752Z 02013KT 11/M04 A3035 RMK A01 T01071040  RH  035%=      5-min Rain = 0
KCL2 141753Z 02013KT 11/M04 A3035 RMK A01 T01081041  RH  035%=      5-min Rain = 0
KCL2 141754Z 02013G18KT 11/M04 A3035 RMK A01 T01081042  RH  035%=      5-min Rain = 0
KCL2 141755Z 02015KT 11/M04 A3035 RMK A01 T01081039  RH  035%=      5-min Rain = 0
KCL2 141756Z 03016KT 11/M04 A3035 RMK A01 T01091041  RH  035%=      5-min Rain = 0
KCL2 141757Z 03015KT 11/M04 A3035 RMK A01 T01091043  RH  034%=      5-min Rain = 0
KCL2 141758Z 03014KT 11/M04 A3035 RMK A01 T01081043  RH  034%=      5-min Rain = 0
KCL2 141759Z 02009G14KT 11/M04 A3035 RMK A01 T01081043  RH  034%=      5-min Rain = 0
KCL2 141800Z 02009KT 11/M04 A3035 RMK A01 T01081043  RH  035%=      5-min Rain = 0
KCL2 141801Z 02015G20KT 11/M04 A3035 RMK A01 T01101039  RH  035%=      5-min Rain = 0
KCL2 141802Z 03017KT 11/M04 A3035 RMK A01 T01101042  RH  034%=      5-min Rain = 0
KCL2 141803Z 03012KT 11/M04 A3035 RMK A01 T01091044  RH  034%=      5-min Rain = 0
KCL2 141804Z 03012KT 11/M04 A3035 RMK A01 T01081042  RH  034%=      5-min Rain = 0
KCL2 141805Z 03015KT 11/M04 A3035 RMK A01 T01101040  RH  035%=      5-min Rain = 0
KCL2 141806Z 03014KT 11/M04 A3035 RMK A01 T01111040  RH  035%=      5-min Rain = 0
KCL2 141807Z 02011KT 11/M04 A3035 RMK A01 T01101042  RH  034%=      5-min Rain = 0
KCL2 141808Z 02013KT 11/M04 A3034 RMK A01 T01101041  RH  034%=      5-min Rain = 0
KCL2 141809Z 03013KT 11/M04 A3034 RMK A01 T01101041  RH  034%=      5-min Rain = 0
KCL2 141810Z 03014KT 11/M04 A3034 RMK A01 T01121041  RH  034%=      5-min Rain = 0
KCL2 141811Z 03015G20KT 11/M04 A3034 RMK A01 T01121042  RH  034%=      5-min Rain = 0
KCL2 141812Z 03014G19KT 11/M04 A3034 RMK A01 T01121043  RH  033%=      5-min Rain = 0
KCL2 141813Z 04012KT 11/M04 A3034 RMK A01 T01111043  RH  034%=      5-min Rain = 0
KCL2 141814Z 03010G15KT 11/M04 A3034 RMK A01 T01111042  RH  034%=      5-min Rain = 0
KCL2 141815Z 03014KT 11/M04 A3034 RMK A01 T01131039  RH  034%=      5-min Rain = 0
KCL2 141816Z 02014KT 11/M04 A3034 RMK A01 T01141041  RH  033%=      5-min Rain = 0
KCL2 141817Z 02014KT 12/M04 A3034 RMK A01 T01151043  RH  033%=      5-min Rain = 0
KCL2 141818Z 03014KT 12/M04 A3034 RMK A01 T01161042  RH  033%=      5-min Rain = 0
KCL2 141819Z 03015KT 12/M04 A3034 RMK A01 T01171044  RH  032%=      5-min Rain = 0
KCL2 141820Z 03015KT 12/M05 A3034 RMK A01 T01151045  RH  032%=      5-min Rain = 0
KCL2 141821Z 03014KT 11/M05 A3034 RMK A01 T01121046  RH  033%=      5-min Rain = 0
KCL2 141822Z 05013KT 11/M04 A3034 RMK A01 T01111044  RH  033%=      5-min Rain = 0
KCL2 141823Z 03012KT 11/M04 A3034 RMK A01 T01121043  RH  033%=      5-min Rain = 0
KCL2 141824Z 02011KT 11/M04 A3034 RMK A01 T01121043  RH  033%=      5-min Rain = 0
KCL2 141825Z 02013G18KT 11/M04 A3034 RMK A01 T01121043  RH  034%=      5-min Rain = 0
KCL2 141826Z 03015KT 11/M04 A3034 RMK A01 T01131042  RH  033%=      5-min Rain = 0
KCL2 141827Z 04015KT 11/M04 A3034 RMK A01 T01141043  RH  033%=      5-min Rain = 0
KCL2 141828Z 03012KT 12/M04 A3034 RMK A01 T01151042  RH  033%=      5-min Rain = 0
KCL2 141829Z 02014KT 12/M04 A3034 RMK A01 T01181040  RH  033%=      5-min Rain = 0
KCL2 141830Z 02012KT 12/M04 A3034 RMK A01 T01171043  RH  032%=      5-min Rain = 0
KCL2 141831Z 01013KT 11/M04 A3033 RMK A01 T01141044  RH  033%=      5-min Rain = 0
KCL2 141832Z 03016KT 11/M04 A3033 RMK A01 T01141043  RH  033%=      5-min Rain = 0
KCL2 141833Z 03014G19KT 12/M04 A3033 RMK A01 T01151042  RH  033%=      5-min Rain = 0
KCL2 141834Z 03015KT 12/M04 A3033 RMK A01 T01181041  RH  033%=      5-min Rain = 0
KCL2 141835Z 03016KT 12/M05 A3033 RMK A01 T01171045  RH  032%=      5-min Rain = 0
KCL2 141836Z 04015KT 12/M05 A3033 RMK A01 T01151045  RH  032%=      5-min Rain = 0
KCL2 141837Z 04013KT 12/M04 A3033 RMK A01 T01151043  RH  033%=      5-min Rain = 0
KCL2 141838Z 04016KT 12/M04 A3033 RMK A01 T01161043  RH  033%=      5-min Rain = 0
KCL2 141839Z 04013KT 12/M04 A3033 RMK A01 T01171041  RH  033%=      5-min Rain = 0
KCL2 141840Z 04015G20KT 12/M04 A3033 RMK A01 T01181043  RH  032%=      5-min Rain = 0
KCL2 141841Z 04017KT 12/M05 A3033 RMK A01 T01161045  RH  032%=      5-min Rain = 0
KCL2 141842Z 04018KT 12/M05 A3033 RMK A01 T01151045  RH  032%=      5-min Rain = 0
KCL2 141843Z 05014KT 11/M04 A3033 RMK A01 T01131044  RH  033%=      5-min Rain = 0
KCL2 141844Z 05012KT 11/M04 A3033 RMK A01 T01141042  RH  033%=      5-min Rain = 0
KCL2 141845Z 05016KT 12/M04 A3033 RMK A01 T01161041  RH  033%=      5-min Rain = 0
KCL2 141846Z 03013G18KT 11/M04 A3033 RMK A01 T01141044  RH  033%=      5-min Rain = 0
KCL2 141847Z 02008G13KT 11/M04 A3033 RMK A01 T01141042  RH  033%=      5-min Rain = 0
KCL2 141848Z 02011KT 12/M04 A3033 RMK A01 T01171038  RH  034%=      5-min Rain = 0
KCL2 141849Z 02013KT 12/M04 A3033 RMK A01 T01211037  RH  033%=      5-min Rain = 0
KCL2 141850Z 03015KT 12/M04 A3033 RMK A01 T01221040  RH  032%=      5-min Rain = 0
KCL2 141851Z 04015KT 12/M05 A3033 RMK A01 T01211045  RH  031%=      5-min Rain = 0
KCL2 141852Z 04016KT 12/M05 A3033 RMK A01 T01181047  RH  031%=      5-min Rain = 0
KCL2 141853Z 04016KT 12/M05 A3033 RMK A01 T01161046  RH  032%=      5-min Rain = 0
KCL2 141854Z 04015G20KT 12/M04 A3033 RMK A01 T01161044  RH  032%=      5-min Rain = 0
KCL2 141855Z 04016KT 12/M04 A3033 RMK A01 T01171043  RH  032%=      5-min Rain = 0
KCL2 141856Z 04015KT 12/M04 A3033 RMK A01 T01181043  RH  032%=      5-min Rain = 0
KCL2 141857Z 04015KT 12/M04 A3033 RMK A01 T01181043  RH  032%=      5-min Rain = 0
KCL2 141858Z 03013KT 12/M04 A3033 RMK A01 T01161043  RH  033%=      5-min Rain = 0
KCL2 141859Z 03011G16KT 12/M04 A3033 RMK A01 T01161043  RH  033%=      5-min Rain = 0
KCL2 141900Z 04012G17KT 12/M04 A3033 RMK A01 T01171040  RH  033%=      5-min Rain = 0
KCL2 141901Z 03014KT 12/M04 A3033 RMK A01 T01191041  RH  033%=      5-min Rain = 0
KCL2 141902Z 02013KT 12/M04 A3033 RMK A01 T01201039  RH  033%=      5-min Rain = 0
KCL2 141903Z 01014KT 12/M04 A3033 RMK A01 T01211041  RH  032%=      5-min Rain = 0
KCL2 141904Z 01013G18KT 12/M04 A3033 RMK A01 T01211040  RH  032%=      5-min Rain = 0
KCL2 141905Z 03015KT 12/M04 A3033 RMK A01 T01201040  RH  032%=      5-min Rain = 0
KCL2 141906Z 03016KT 12/M04 A3033 RMK A01 T01191041  RH  032%=      5-min Rain = 0
KCL2 141907Z 02014KT 12/M04 A3033 RMK A01 T01181040  RH  033%=      5-min Rain = 0
KCL2 141908Z 03014KT 12/M04 A3033 RMK A01 T01201038  RH  033%=      5-min Rain = 0
KCL2 141909Z 03014KT 12/M04 A3033 RMK A01 T01201039  RH  033%=      5-min Rain = 0
KCL2 141910Z 03013KT 12/M04 A3033 RMK A01 T01191040  RH  033%=      5-min Rain = 0
KCL2 141911Z 04014KT 12/M04 A3033 RMK A01 T01191039  RH  033%=      5-min Rain = 0
KCL2 141912Z 04014KT 12/M04 A3033 RMK A01 T01201039  RH  033%=      5-min Rain = 0
KCL2 141913Z 04015KT 12/M04 A3033 RMK A01 T01191039  RH  033%=      5-min Rain = 0
KCL2 141914Z 04011KT 12/M04 A3032 RMK A01 T01191037  RH  033%=      5-min Rain = 0
KCL2 141915Z 02011KT 12/M04 A3033 RMK A01 T01221036  RH  033%=      5-min Rain = 0
KCL2 141916Z 03014KT 12/M04 A3033 RMK A01 T01221038  RH  033%=      5-min Rain = 0
KCL2 141917Z 02014KT 12/M04 A3033 RMK A01 T01211039  RH  033%=      5-min Rain = 0
KCL2 141918Z 03012KT 12/M04 A3032 RMK A01 T01181040  RH  033%=      5-min Rain = 0
KCL2 141919Z 03015KT 12/M04 A3032 RMK A01 T01181038  RH  033%=      5-min Rain = 0
KCL2 141920Z 02013KT 12/M04 A3032 RMK A01 T01201038  RH  033%=      5-min Rain = 0
KCL2 141921Z 02013KT 12/M04 A3032 RMK A01 T01201038  RH  033%=      5-min Rain = 0
KCL2 141922Z 03012G17KT 12/M04 A3032 RMK A01 T01201037  RH  033%=      5-min Rain = 0
KCL2 141923Z 04014KT 12/M04 A3032 RMK A01 T01241035  RH  033%=      5-min Rain = 0
KCL2 141924Z 04012KT 12/M04 A3032 RMK A01 T01241035  RH  033%=      5-min Rain = 0
KCL2 141925Z 05012KT 12/M04 A3032 RMK A01 T01241036  RH  033%=      5-min Rain = 0
KCL2 141926Z 04012KT 12/M04 A3032 RMK A01 T01231037  RH  033%=      5-min Rain = 0
KCL2 141927Z 03014KT 12/M04 A3032 RMK A01 T01221036  RH  033%=      5-min Rain = 0
KCL2 141928Z 03015KT 12/M04 A3032 RMK A01 T01221035  RH  033%=      5-min Rain = 0
KCL2 141929Z 03014KT 12/M04 A3032 RMK A01 T01231035  RH  033%=      5-min Rain = 0
KCL2 141930Z 03014KT 12/M04 A3032 RMK A01 T01231035  RH  033%=      5-min Rain = 0
KCL2 141931Z 03014KT 12/M04 A3032 RMK A01 T01221037  RH  033%=      5-min Rain = 0
KCL2 141932Z 02012KT 12/M04 A3032 RMK A01 T01221036  RH  033%=      5-min Rain = 0
KCL2 141933Z 04013G19KT 12/M04 A3032 RMK A01 T01221036  RH  033%=      5-min Rain = 0
KCL2 141934Z 04018KT 12/M03 A3032 RMK A01 T01231033  RH  033%=      5-min Rain = 0
KCL2 141935Z 04016KT 12/M04 A3032 RMK A01 T01211036  RH  033%=      5-min Rain = 0
KCL2 141936Z 04014G19KT 12/M04 A3032 RMK A01 T01191036  RH  034%=      5-min Rain = 0
KCL2 141937Z 05016KT 12/M04 A3032 RMK A01 T01191035  RH  034%=      5-min Rain = 0
KCL2 141938Z 04014KT 12/M04 A3032 RMK A01 T01201035  RH  034%=      5-min Rain = 0
KCL2 141939Z 05015KT 12/M04 A3032 RMK A01 T01201035  RH  034%=      5-min Rain = 0
KCL2 141940Z 06014KT 12/M04 A3032 RMK A01 T01201035  RH  034%=      5-min Rain = 0
KCL2 141941Z 05014G19KT 12/M03 A3032 RMK A01 T01201034  RH  034%=      5-min Rain = 0
KCL2 141942Z 04015KT 12/M03 A3032 RMK A01 T01231032  RH  034%=      5-min Rain = 0
KCL2 141943Z 02012KT 12/M03 A3032 RMK A01 T01231033  RH  033%=      5-min Rain = 0
KCL2 141944Z 04013KT 12/M03 A3032 RMK A01 T01231031  RH  034%=      5-min Rain = 0
KCL2 141945Z 04013KT 12/M03 A3032 RMK A01 T01241033  RH  033%=      5-min Rain = 0
KCL2 141946Z 04011KT 12/M04 A3032 RMK A01 T01221037  RH  033%=      5-min Rain = 0
KCL2 141947Z 03011KT 12/M03 A3032 RMK A01 T01201034  RH  034%=      5-min Rain = 0
KCL2 141948Z 03014KT 12/M03 A3032 RMK A01 T01221032  RH  034%=      5-min Rain = 0
KCL2 141949Z 03015KT 12/M03 A3032 RMK A01 T01221030  RH  034%=      5-min Rain = 0
KCL2 141950Z 04013KT 12/M03 A3032 RMK A01 T01221029  RH  035%=      5-min Rain = 0
KCL2 141951Z 05018KT 12/M03 A3032 RMK A01 T01241026  RH  035%=      5-min Rain = 0
KCL2 141952Z 04017KT 12/M03 A3032 RMK A01 T01241026  RH  035%=      5-min Rain = 0
KCL2 141953Z 05017KT 12/M03 A3032 RMK A01 T01221027  RH  035%=      5-min Rain = 0
KCL2 141954Z 04014KT 12/M03 A3032 RMK A01 T01191025  RH  036%=      5-min Rain = 0
KCL2 141955Z 03015KT 12/M02 A3031 RMK A01 T01221023  RH  036%=      5-min Rain = 0
KCL2 141956Z 05016KT 12/M02 A3032 RMK A01 T01221024  RH  036%=      5-min Rain = 0
KCL2 141957Z 05013KT 12/M02 A3031 RMK A01 T01191024  RH  037%=      5-min Rain = 0
KCL2 141958Z 05014KT 12/M02 A3031 RMK A01 T01201023  RH  037%=      5-min Rain = 0
KCL2 141959Z 04013KT 12/M02 A3031 RMK A01 T01211021  RH  037%=      5-min Rain = 0
KCL2 142000Z 03014KT 13/M02 A3031 RMK A01 T01251020  RH  036%=      5-min Rain = 0
KCL2 142001Z 04012KT 12/M02 A3031 RMK A01 T01231023  RH  036%=      5-min Rain = 0
KCL2 142002Z 04011KT 12/M02 A3031 RMK A01 T01241019  RH  037%=      5-min Rain = 0
KCL2 142003Z 04008KT 13/M02 A3031 RMK A01 T01261020  RH  036%=      5-min Rain = 0
KCL2 142004Z 04009KT 13/M02 A3031 RMK A01 T01271018  RH  037%=      5-min Rain = 0
KCL2 142005Z 04016KT 13/M02 A3031 RMK A01 T01301017  RH  036%=      5-min Rain = 0
KCL2 142006Z 03013KT 13/M02 A3031 RMK A01 T01271020  RH  036%=      5-min Rain = 0
KCL2 142007Z 02013G18KT 13/M02 A3031 RMK A01 T01261018  RH  037%=      5-min Rain = 0
KCL2 142008Z 01012KT 13/M02 A3031 RMK A01 T01251019  RH  037%=      5-min Rain = 0
KCL2 142009Z 03013KT 12/M02 A3031 RMK A01 T01241017  RH  038%=      5-min Rain = 0
KCL2 142010Z 03015KT 13/M02 A3031 RMK A01 T01261017  RH  037%=      5-min Rain = 0
KCL2 142011Z 03009G14KT 13/M02 A3031 RMK A01 T01251018  RH  037%=      5-min Rain = 0
KCL2 142012Z 02014KT 13/M01 A3031 RMK A01 T01261014  RH  038%=      5-min Rain = 0
KCL2 142013Z 02013KT 13/M02 A3031 RMK A01 T01271016  RH  037%=      5-min Rain = 0
KCL2 142014Z 01015KT 13/M02 A3031 RMK A01 T01261017  RH  037%=      5-min Rain = 0
KCL2 142015Z 03011G17KT 12/M02 A3031 RMK A01 T01231018  RH  037%=      5-min Rain = 0
KCL2 142016Z 04011KT 12/M01 A3031 RMK A01 T01241014  RH  038%=      5-min Rain = 0
KCL2 142017Z 05014KT 13/M02 A3031 RMK A01 T01261016  RH  037%=      5-min Rain = 0
KCL2 142018Z 03015KT 12/M02 A3031 RMK A01 T01231017  RH  038%=      5-min Rain = 0
KCL2 142019Z 03009G14KT 12/M01 A3031 RMK A01 T01231014  RH  039%=      5-min Rain = 0
KCL2 142020Z 04010KT 13/M01 A3031 RMK A01 T01261011  RH  039%=      5-min Rain = 0
KCL2 142021Z 03009KT 13/M01 A3031 RMK A01 T01311011  RH  037%=      5-min Rain = 0
KCL2 142022Z 03010KT 13/M02 A3031 RMK A01 T01301015  RH  037%=      5-min Rain = 0
KCL2 142023Z 03012KT 13/M01 A3031 RMK A01 T01291013  RH  037%=      5-min Rain = 0
KCL2 142024Z 04011KT 13/M01 A3031 RMK A01 T01311012  RH  037%=      5-min Rain = 0
KCL2 142025Z 04014KT 13/M01 A3031 RMK A01 T01301012  RH  037%=      5-min Rain = 0
KCL2 142026Z 05012KT 13/M01 A3031 RMK A01 T01281014  RH  037%=      5-min Rain = 0
KCL2 142027Z 04011KT 12/M02 A3031 RMK A01 T01241015  RH  038%=      5-min Rain = 0
KCL2 142028Z 02015KT 12/M01 A3031 RMK A01 T01231013  RH  039%=      5-min Rain = 0
KCL2 142029Z 02013KT 12/M01 A3031 RMK A01 T01241013  RH  039%=      5-min Rain = 0
KCL2 142030Z 02012G17KT 12/M01 A3031 RMK A01 T01231014  RH  039%=      5-min Rain = 0
KCL2 142031Z 02013G19KT 12/M01 A3031 RMK A01 T01231012  RH  039%=      5-min Rain = 0
KCL2 142032Z 02017KT 12/M01 A3031 RMK A01 T01241013  RH  038%=      5-min Rain = 0
KCL2 142033Z 03015KT 12/M01 A3031 RMK A01 T01231013  RH  039%=      5-min Rain = 0
KCL2 142034Z 03011KT 12/M01 A3031 RMK A01 T01231013  RH  039%=      5-min Rain = 0
KCL2 142035Z 03011KT 12/M01 A3031 RMK A01 T01231014  RH  039%=      5-min Rain = 0
KCL2 142036Z 04013G18KT 12/M01 A3031 RMK A01 T01241013  RH  039%=      5-min Rain = 0
KCL2 142037Z 03015KT 12/M01 A3031 RMK A01 T01241013  RH  039%=      5-min Rain = 0
KCL2 142038Z 03015KT 12/M01 A3031 RMK A01 T01241014  RH  038%=      5-min Rain = 0
KCL2 142039Z 03015KT 12/M02 A3031 RMK A01 T01231016  RH  038%=      5-min Rain = 0
KCL2 142040Z 03015KT 12/M02 A3031 RMK A01 T01221015  RH  038%=      5-min Rain = 0
KCL2 142041Z 04015KT 12/M02 A3031 RMK A01 T01221015  RH  039%=      5-min Rain = 0
KCL2 142042Z 03012KT 12/M01 A3031 RMK A01 T01221013  RH  039%=      5-min Rain = 0
KCL2 142043Z 03011G16KT 12/M01 A3031 RMK A01 T01241012  RH  039%=      5-min Rain = 0
KCL2 142044Z 02012KT 13/M01 A3031 RMK A01 T01271011  RH  038%=      5-min Rain = 0
KCL2 142045Z 02013G19KT 13/M01 A3031 RMK A01 T01281012  RH  038%=      5-min Rain = 0
KCL2 142046Z 02014KT 13/M01 A3031 RMK A01 T01281014  RH  037%=      5-min Rain = 0
KCL2 142047Z 03015KT 13/M02 A3032 RMK A01 T01261016  RH  037%=      5-min Rain = 0
KCL2 142048Z 04015KT 13/M02 A3031 RMK A01 T01251016  RH  038%=      5-min Rain = 0
KCL2 142049Z 03013KT 13/M02 A3032 RMK A01 T01251016  RH  037%=      5-min Rain = 0
KCL2 142050Z 03015KT 13/M02 A3032 RMK A01 T01261018  RH  037%=      5-min Rain = 0
KCL2 142051Z 04016KT 13/M02 A3032 RMK A01 T01261017  RH  037%=      5-min Rain = 0
KCL2 142052Z 04011KT 13/M01 A3032 RMK A01 T01261013  RH  038%=      5-min Rain = 0
KCL2 142053Z 04014KT 13/M01 A3032 RMK A01 T01291012  RH  038%=      5-min Rain = 0
KCL2 142054Z 03015KT 13/M01 A3032 RMK A01 T01271014  RH  037%=      5-min Rain = 0
KCL2 142055Z 02015KT 13/M01 A3032 RMK A01 T01261014  RH  038%=      5-min Rain = 0
KCL2 142056Z 03012KT 13/M01 A3032 RMK A01 T01251014  RH  038%=      5-min Rain = 0
KCL2 142057Z 04013KT 12/M02 A3032 RMK A01 T01231015  RH  038%=      5-min Rain = 0
KCL2 142058Z 03013KT 12/M01 A3032 RMK A01 T01221014  RH  039%=      5-min Rain = 0
KCL2 142059Z 03016KT 12/M01 A3032 RMK A01 T01231013  RH  039%=      5-min Rain = 0
KCL2 142100Z 03014KT 12/M01 A3032 RMK A01 T01241013  RH  038%=      5-min Rain = 0
KCL2 142101Z 02012KT 13/M01 A3032 RMK A01 T01251013  RH  038%=      5-min Rain = 0
KCL2 142102Z 03013KT 12/M01 A3032 RMK A01 T01241012  RH  039%=      5-min Rain = 0
KCL2 142103Z 04012G17KT 13/M01 A3032 RMK A01 T01261012  RH  038%=      5-min Rain = 0
KCL2 142104Z 03011G17KT 13/M01 A3032 RMK A01 T01271011  RH  038%=      5-min Rain = 0
KCL2 142105Z 03014KT 13/M01 A3032 RMK A01 T01291014  RH  037%=      5-min Rain = 0
KCL2 142106Z 03012G17KT 13/M02 A3032 RMK A01 T01271015  RH  037%=      5-min Rain = 0
KCL2 142107Z 03015KT 13/M02 A3032 RMK A01 T01261015  RH  038%=      5-min Rain = 0
KCL2 142108Z 03013KT 13/M01 A3032 RMK A01 T01251014  RH  038%=      5-min Rain = 0
KCL2 142109Z 03012KT 13/M01 A3032 RMK A01 T01251014  RH  038%=      5-min Rain = 0
KCL2 142110Z 03013KT 12/M01 A3032 RMK A01 T01241014  RH  038%=      5-min Rain = 0
KCL2 142111Z 04014KT 12/M01 A3032 RMK A01 T01231014  RH  039%=      5-min Rain = 0
KCL2 142112Z 04016KT 12/M01 A3032 RMK A01 T01221013  RH  039%=      5-min Rain = 0
KCL2 142113Z 04015KT 12/M01 A3032 RMK A01 T01211013  RH  039%=      5-min Rain = 0
KCL2 142114Z 04015KT 12/M01 A3032 RMK A01 T01211012  RH  040%=      5-min Rain = 0
KCL2 142115Z 03016KT 12/M01 A3032 RMK A01 T01211012  RH  040%=      5-min Rain = 0
KCL2 142116Z 03015KT 12/M01 A3032 RMK A01 T01211013  RH  039%=      5-min Rain = 0
KCL2 142117Z 03013KT 12/M01 A3032 RMK A01 T01211012  RH  040%=      5-min Rain = 0
KCL2 142118Z 02013KT 12/M01 A3032 RMK A01 T01221011  RH  040%=      5-min Rain = 0
KCL2 142119Z 02010KT 12/M01 A3032 RMK A01 T01221009  RH  040%=      5-min Rain = 0
KCL2 142120Z 02014KT 12/M01 A3032 RMK A01 T01231009  RH  040%=      5-min Rain = 0
KCL2 142121Z 02012KT 12/M01 A3032 RMK A01 T01221009  RH  040%=      5-min Rain = 0
KCL2 142122Z 01010KT 12/M01 A3032 RMK A01 T01221009  RH  040%=      5-min Rain = 0
KCL2 142123Z 04015KT 12/M01 A3032 RMK A01 T01221010  RH  040%=      5-min Rain = 0
KCL2 142124Z 04012KT 12/M01 A3032 RMK A01 T01221010  RH  040%=      5-min Rain = 0
KCL2 142125Z 04012KT 12/M01 A3032 RMK A01 T01221010  RH  040%=      5-min Rain = 0
KCL2 142126Z 04011KT 12/M01 A3032 RMK A01 T01211010  RH  040%=      5-min Rain = 0
KCL2 142127Z 03012KT 12/M01 A3032 RMK A01 T01211009  RH  041%=      5-min Rain = 0
KCL2 142128Z 02010KT 12/M01 A3032 RMK A01 T01211008  RH  041%=      5-min Rain = 0
KCL2 142129Z 01008G14KT 12/M01 A3032 RMK A01 T01231006  RH  041%=      5-min Rain = 0
KCL2 142130Z 02014KT 13/M01 A3032 RMK A01 T01251007  RH  040%=      5-min Rain = 0
KCL2 142131Z 03015KT 12/M01 A3032 RMK A01 T01241008  RH  040%=      5-min Rain = 0
KCL2 142132Z 03012KT 12/M01 A3032 RMK A01 T01221009  RH  040%=      5-min Rain = 0
KCL2 142133Z 02012KT 12/M01 A3032 RMK A01 T01221009  RH  041%=      5-min Rain = 0
KCL2 142134Z 02012KT 12/M01 A3032 RMK A01 T01211009  RH  041%=      5-min Rain = 0
KCL2 142135Z 02013KT 12/M01 A3032 RMK A01 T01211008  RH  041%=      5-min Rain = 0
KCL2 142136Z 02014KT 12/M01 A3032 RMK A01 T01201008  RH  041%=      5-min Rain = 0
KCL2 142137Z 01012KT 12/M01 A3032 RMK A01 T01211008  RH  041%=      5-min Rain = 0
KCL2 142138Z 01012KT 12/M01 A3032 RMK A01 T01221007  RH  041%=      5-min Rain = 0
KCL2 142139Z 01010KT 12/M01 A3032 RMK A01 T01221008  RH  041%=      5-min Rain = 0
KCL2 142140Z 02010KT 12/M01 A3032 RMK A01 T01211007  RH  041%=      5-min Rain = 0
KCL2 142141Z 04012G17KT 12/M01 A3032 RMK A01 T01221007  RH  041%=      5-min Rain = 0
KCL2 142142Z 03010KT 12/M01 A3032 RMK A01 T01221007  RH  041%=      5-min Rain = 0
KCL2 142143Z 03011KT 12/M01 A3032 RMK A01 T01221007  RH  041%=      5-min Rain = 0
KCL2 142144Z 04012KT 12/M01 A3032 RMK A01 T01211007  RH  041%=      5-min Rain = 0
KCL2 142145Z 01012KT 12/M01 A3032 RMK A01 T01211005  RH  042%=      5-min Rain = 0
KCL2 142146Z 02010KT 12/M01 A3032 RMK A01 T01221006  RH  041%=      5-min Rain = 0
KCL2 142147Z 02012KT 12/M01 A3032 RMK A01 T01221005  RH  042%=      5-min Rain = 0
KCL2 142148Z 02009KT 12/M01 A3032 RMK A01 T01221005  RH  041%=      5-min Rain = 0
KCL2 142149Z 03011KT 12/M01 A3032 RMK A01 T01221005  RH  041%=      5-min Rain = 0
KCL2 142150Z 02008KT 12/M01 A3032 RMK A01 T01221006  RH  041%=      5-min Rain = 0
KCL2 142151Z 03009KT 12/M01 A3032 RMK A01 T01221006  RH  041%=      5-min Rain = 0
KCL2 142152Z 01011KT 12/M01 A3032 RMK A01 T01221006  RH  041%=      5-min Rain = 0
KCL2 142153Z 00009KT 12/M01 A3032 RMK A01 T01221006  RH  041%=      5-min Rain = 0
KCL2 142154Z 01010G16KT 12/M01 A3032 RMK A01 T01221006  RH  041%=      5-min Rain = 0
KCL2 142155Z 02013KT 12/M01 A3032 RMK A01 T01221006  RH  041%=      5-min Rain = 0
KCL2 142156Z 01012KT 12/M01 A3032 RMK A01 T01211005  RH  042%=      5-min Rain = 0
KCL2 142157Z 01012KT 12/M00 A3032 RMK A01 T01211004  RH  042%=      5-min Rain = 0
KCL2 142158Z 01011KT 12/M01 A3032 RMK A01 T01211005  RH  042%=      5-min Rain = 0
KCL2 142159Z 02009KT 12/M00 A3032 RMK A01 T01211003  RH  042%=      5-min Rain = 0
KCL2 142200Z 02011KT 12/M00 A3032 RMK A01 T01211003  RH  042%=      5-min Rain = 0
KCL2 142201Z 02010KT 12/M00 A3032 RMK A01 T01221004  RH  042%=      5-min Rain = 0
KCL2 142202Z 03009KT 12/M00 A3032 RMK A01 T01221003  RH  042%=      5-min Rain = 0
KCL2 142203Z 03009KT 12/M00 A3032 RMK A01 T01221004  RH  042%=      5-min Rain = 0
KCL2 142204Z 01011KT 12/M00 A3032 RMK A01 T01211004  RH  042%=      5-min Rain = 0
KCL2 142205Z 02012KT 12/M01 A3032 RMK A01 T01211005  RH  042%=      5-min Rain = 0
KCL2 142206Z 02011KT 12/M01 A3032 RMK A01 T01201005  RH  042%=      5-min Rain = 0
KCL2 142207Z 03010KT 12/M00 A3032 RMK A01 T01201003  RH  043%=      5-min Rain = 0
KCL2 142208Z 03011KT 12/M00 A3032 RMK A01 T01211002  RH  043%=      5-min Rain = 0
KCL2 142209Z 04012KT 12/M00 A3032 RMK A01 T01211003  RH  042%=      5-min Rain = 0
KCL2 142210Z 04010KT 12/M00 A3032 RMK A01 T01211004  RH  042%=      5-min Rain = 0
KCL2 142211Z 03009KT 12/M00 A3032 RMK A01 T01201004  RH  042%=      5-min Rain = 0
KCL2 142212Z 03009KT 12/M00 A3032 RMK A01 T01201003  RH  043%=      5-min Rain = 0
KCL2 142213Z 02012KT 12/M00 A3032 RMK A01 T01201003  RH  042%=      5-min Rain = 0
KCL2 142214Z 02013KT 12/M00 A3032 RMK A01 T01201004  RH  042%=      5-min Rain = 0
KCL2 142215Z 03012KT 12/M00 A3032 RMK A01 T01201003  RH  043%=      5-min Rain = 0
KCL2 142216Z 03012KT 12/M00 A3032 RMK A01 T01191003  RH  043%=      5-min Rain = 0
KCL2 142217Z 04009KT 12/M00 A3032 RMK A01 T01191003  RH  043%=      5-min Rain = 0
KCL2 142218Z 03010KT 12/M00 A3032 RMK A01 T01191003  RH  043%=      5-min Rain = 0
KCL2 142219Z 03009KT 12/M00 A3032 RMK A01 T01191002  RH  043%=      5-min Rain = 0
KCL2 142220Z 03008KT 12/M00 A3032 RMK A01 T01191002  RH  043%=      5-min Rain = 0
KCL2 142221Z 04006KT 12/M00 A3032 RMK A01 T01191002  RH  043%=      5-min Rain = 0
KCL2 142222Z 03009KT 12/M00 A3032 RMK A01 T01201002  RH  043%=      5-min Rain = 0
KCL2 142223Z 02008KT 12/M00 A3032 RMK A01 T01201003  RH  043%=      5-min Rain = 0
KCL2 142224Z 03011KT 12/M00 A3032 RMK A01 T01191002  RH  043%=      5-min Rain = 0
KCL2 142225Z 03010KT 12/M00 A3032 RMK A01 T01191003  RH  043%=      5-min Rain = 0
KCL2 142226Z 02010KT 12/M00 A3032 RMK A01 T01181003  RH  043%=      5-min Rain = 0
KCL2 142227Z 03013KT 12/M00 A3032 RMK A01 T01171003  RH  043%=      5-min Rain = 0
KCL2 142228Z 01012KT 12/M00 A3032 RMK A01 T01171003  RH  043%=      5-min Rain = 0
KCL2 142229Z 01011KT 12/M00 A3032 RMK A01 T01171004  RH  043%=      5-min Rain = 0
KCL2 142230Z 01011KT 12/M00 A3032 RMK A01 T01171004  RH  043%=      5-min Rain = 0
KCL2 142231Z 00011KT 12/M00 A3032 RMK A01 T01171004  RH  043%=      5-min Rain = 0
KCL2 142232Z 00012KT 12/M00 A3032 RMK A01 T01171004  RH  043%=      5-min Rain = 0
KCL2 142233Z 00014KT 12/M00 A3032 RMK A01 T01171004  RH  043%=      5-min Rain = 0
KCL2 142234Z 00012KT 12/M00 A3032 RMK A01 T01171004  RH  043%=      5-min Rain = 0
KCL2 142235Z 01012KT 12/M00 A3032 RMK A01 T01161004  RH  044%=      5-min Rain = 0
KCL2 142236Z 02012G18KT 12/M00 A3032 RMK A01 T01161003  RH  044%=      5-min Rain = 0
KCL2 142237Z 02012KT 12/M00 A3032 RMK A01 T01161003  RH  044%=      5-min Rain = 0
KCL2 142238Z 02012KT 12/M00 A3032 RMK A01 T01171003  RH  044%=      5-min Rain = 0
KCL2 142239Z 02009KT 12/M00 A3032 RMK A01 T01161003  RH  044%=      5-min Rain = 0
KCL2 142240Z 02010G15KT 12/M00 A3033 RMK A01 T01161003  RH  044%=      5-min Rain = 0
KCL2 142241Z 03012KT 12/M00 A3033 RMK A01 T01161004  RH  043%=      5-min Rain = 0
KCL2 142242Z 04013KT 12/M01 A3033 RMK A01 T01161005  RH  043%=      5-min Rain = 0
KCL2 142243Z 03011KT 12/M01 A3033 RMK A01 T01151005  RH  043%=      5-min Rain = 0
KCL2 142244Z 03009KT 11/M01 A3033 RMK A01 T01141005  RH  044%=      5-min Rain = 0
KCL2 142245Z 03010KT 11/M01 A3033 RMK A01 T01141005  RH  044%=      5-min Rain = 0
KCL2 142246Z 03011KT 11/M01 A3033 RMK A01 T01141006  RH  043%=      5-min Rain = 0
KCL2 142247Z 03011KT 11/M01 A3033 RMK A01 T01141007  RH  043%=      5-min Rain = 0
KCL2 142248Z 03010KT 11/M01 A3033 RMK A01 T01131007  RH  043%=      5-min Rain = 0
KCL2 142249Z 04010KT 11/M01 A3033 RMK A01 T01131006  RH  044%=      5-min Rain = 0
KCL2 142250Z 03013KT 11/M01 A3033 RMK A01 T01131007  RH  044%=      5-min Rain = 0
KCL2 142251Z 03014KT 11/M01 A3033 RMK A01 T01131006  RH  044%=      5-min Rain = 0
KCL2 142252Z 02010KT 11/M01 A3033 RMK A01 T01121006  RH  044%=      5-min Rain = 0
KCL2 142253Z 03012KT 11/M01 A3033 RMK A01 T01121006  RH  044%=      5-min Rain = 0
KCL2 142254Z 02012KT 11/M01 A3033 RMK A01 T01121007  RH  044%=      5-min Rain = 0
KCL2 142255Z 02009KT 11/M01 A3033 RMK A01 T01111006  RH  044%=      5-min Rain = 0
KCL2 142256Z 02009KT 11/M01 A3033 RMK A01 T01111006  RH  044%=      5-min Rain = 0
KCL2 142257Z 02010KT 11/M01 A3033 RMK A01 T01111005  RH  045%=      5-min Rain = 0
KCL2 142258Z 03010KT 11/M01 A3033 RMK A01 T01111006  RH  044%=      5-min Rain = 0
KCL2 142259Z 03009KT 11/M01 A3033 RMK A01 T01101006  RH  044%=      5-min Rain = 0
KCL2 142300Z 03011KT 11/M01 A3033 RMK A01 T01101007  RH  044%=      5-min Rain = 0
KCL2 142301Z 02012G17KT 11/M01 A3033 RMK A01 T01101007  RH  044%=      5-min Rain = 0
KCL2 142302Z 03012KT 11/M01 A3033 RMK A01 T01091007  RH  044%=      5-min Rain = 0
KCL2 142303Z 03011KT 11/M01 A3033 RMK A01 T01091007  RH  045%=      5-min Rain = 0
KCL2 142304Z 02009KT 11/M01 A3033 RMK A01 T01091007  RH  045%=      5-min Rain = 0
KCL2 142305Z 02008KT 11/M01 A3033 RMK A01 T01081006  RH  045%=      5-min Rain = 0
KCL2 142306Z 02010KT 11/M01 A3033 RMK A01 T01081006  RH  045%=      5-min Rain = 0
KCL2 142307Z 02010KT 11/M01 A3033 RMK A01 T01071007  RH  045%=      5-min Rain = 0
KCL2 142308Z 02011KT 11/M01 A3033 RMK A01 T01071007  RH  045%=      5-min Rain = 0
KCL2 142309Z 01011KT 11/M01 A3033 RMK A01 T01071006  RH  045%=      5-min Rain = 0
KCL2 142310Z 02008KT 11/M01 A3034 RMK A01 T01071006  RH  046%=      5-min Rain = 0
KCL2 142311Z 02009KT 11/M01 A3034 RMK A01 T01061006  RH  046%=      5-min Rain = 0
KCL2 142312Z 02009KT 11/M01 A3034 RMK A01 T01061006  RH  046%=      5-min Rain = 0
KCL2 142313Z 02010KT 11/M01 A3034 RMK A01 T01051006  RH  046%=      5-min Rain = 0
KCL2 142314Z 02008G13KT 11/M01 A3034 RMK A01 T01051006  RH  046%=      5-min Rain = 0
KCL2 142315Z 02010KT 10/M01 A3034 RMK A01 T01041006  RH  046%=      5-min Rain = 0
KCL2 142316Z 02009KT 10/M01 A3034 RMK A01 T01041006  RH  046%=      5-min Rain = 0
KCL2 142317Z 02009KT 10/M01 A3034 RMK A01 T01041006  RH  046%=      5-min Rain = 0
KCL2 142318Z 02010KT 10/M01 A3034 RMK A01 T01031006  RH  047%=      5-min Rain = 0
KCL2 142319Z 02009KT 10/M01 A3034 RMK A01 T01031006  RH  047%=      5-min Rain = 0
KCL2 142320Z 02008KT 10/M01 A3034 RMK A01 T01021006  RH  047%=      5-min Rain = 0
KCL2 142321Z 02008KT 10/M01 A3034 RMK A01 T01021006  RH  047%=      5-min Rain = 0
KCL2 142322Z 02008KT 10/M01 A3034 RMK A01 T01021006  RH  047%=      5-min Rain = 0
KCL2 142323Z 02009KT 10/M01 A3034 RMK A01 T01021005  RH  047%=      5-min Rain = 0
KCL2 142324Z 02007KT 10/M01 A3034 RMK A01 T01011005  RH  047%=      5-min Rain = 0
KCL2 142325Z 02007KT 10/M01 A3034 RMK A01 T01001006  RH  048%=      5-min Rain = 0
KCL2 142326Z 01007KT 10/M01 A3034 RMK A01 T00991005  RH  048%=      5-min Rain = 0
KCL2 142327Z 02010KT 10/M01 A3034 RMK A01 T00981006  RH  048%=      5-min Rain = 0
KCL2 142328Z 02008KT 10/M01 A3034 RMK A01 T00981006  RH  048%=      5-min Rain = 0
KCL2 142329Z 02007KT 10/M01 A3034 RMK A01 T00981006  RH  049%=      5-min Rain = 0
KCL2 142330Z 02007KT 10/M01 A3034 RMK A01 T00971005  RH  049%=      5-min Rain = 0
KCL2 142331Z 01007KT 10/M01 A3035 RMK A01 T00961006  RH  049%=      5-min Rain = 0
KCL2 142332Z 02007KT 10/M01 A3035 RMK A01 T00961006  RH  049%=      5-min Rain = 0
KCL2 142333Z 02006KT 10/M01 A3035 RMK A01 T00951006  RH  049%=      5-min Rain = 0
KCL2 142334Z 01007KT 10/M01 A3035 RMK A01 T00951006  RH  049%=      5-min Rain = 0
KCL2 142335Z 02007KT 09/M01 A3035 RMK A01 T00941006  RH  050%=      5-min Rain = 0
KCL2 142336Z 02007KT 09/M01 A3035 RMK A01 T00941006  RH  049%=      5-min Rain = 0
KCL2 142337Z 02007KT 09/M01 A3035 RMK A01 T00941006  RH  049%=      5-min Rain = 0
KCL2 142338Z 01008KT 09/M01 A3035 RMK A01 T00941007  RH  049%=      5-min Rain = 0
KCL2 142339Z 02008KT 09/M01 A3035 RMK A01 T00941007  RH  049%=      5-min Rain = 0
KCL2 142340Z 02007KT 09/M01 A3035 RMK A01 T00941007  RH  049%=      5-min Rain = 0
KCL2 142341Z 02007KT 09/M01 A3035 RMK A01 T00941007  RH  049%=      5-min Rain = 0
KCL2 142342Z 02007KT 09/M01 A3035 RMK A01 T00931007  RH  050%=      5-min Rain = 0
KCL2 142343Z 02008KT 09/M01 A3035 RMK A01 T00921007  RH  050%=      5-min Rain = 0
KCL2 142344Z 02007KT 09/M01 A3035 RMK A01 T00911007  RH  050%=      5-min Rain = 0
KCL2 142345Z 02007KT 09/M01 A3035 RMK A01 T00911006  RH  051%=      5-min Rain = 0
KCL2 142346Z 02007KT 09/M01 A3035 RMK A01 T00901007  RH  051%=      5-min Rain = 0
KCL2 142347Z 01006KT 09/M01 A3035 RMK A01 T00901007  RH  051%=      5-min Rain = 0
KCL2 142348Z 01005KT 09/M01 A3035 RMK A01 T00891007  RH  051%=      5-min Rain = 0
KCL2 142349Z 01006KT 09/M01 A3035 RMK A01 T00891007  RH  051%=      5-min Rain = 0
KCL2 142350Z 01006KT 09/M01 A3035 RMK A01 T00881007  RH  051%=      5-min Rain = 0
KCL2 142351Z 01006KT 09/M01 A3035 RMK A01 T00881007  RH  051%=      5-min Rain = 0
KCL2 142352Z 01006KT 09/M01 A3035 RMK A01 T00871008  RH  051%=      5-min Rain = 0
KCL2 142353Z 02005KT 09/M01 A3035 RMK A01 T00871007  RH  052%=      5-min Rain = 0
KCL2 142354Z 01006KT 09/M01 A3035 RMK A01 T00861008  RH  052%=      5-min Rain = 0
KCL2 142355Z 02006KT 09/M01 A3035 RMK A01 T00851008  RH  052%=      5-min Rain = 0
KCL2 142356Z 01006KT 09/M01 A3035 RMK A01 T00851008  RH  052%=      5-min Rain = 0
KCL2 142357Z 01006KT 09/M01 A3035 RMK A01 T00851008  RH  052%=      5-min Rain = 0
KCL2 142358Z 01007KT 08/M01 A3035 RMK A01 T00841008  RH  052%=      5-min Rain = 0
KCL2 142359Z 01006KT 08/M01 A3035 RMK A01 T00841008  RH  052%=      5-min Rain = 0
KCL2 150000Z 01006KT 08/M01 A3035 RMK A01 T00841007  RH  053%=      5-min Rain = 0
KCL2 150001Z 01007KT 08/M01 A3035 RMK A01 T00841008  RH  053%=      5-min Rain = 0
KCL2 150002Z 01006KT 08/M01 A3035 RMK A01 T00841008  RH  053%=      5-min Rain = 0
KCL2 150003Z 01007KT 08/M01 A3035 RMK A01 T00841008  RH  052%=      5-min Rain = 0
KCL2 150004Z 01006KT 08/M01 A3035 RMK A01 T00831009  RH  052%=      5-min Rain = 0
KCL2 150005Z 01006KT 08/M01 A3036 RMK A01 T00841008  RH  052%=      5-min Rain = 0
KCL2 150006Z 01006KT 08/M01 A3036 RMK A01 T00831008  RH  053%=      5-min Rain = 0
KCL2 150007Z 01005KT 08/M01 A3036 RMK A01 T00821008  RH  053%=      5-min Rain = 0
KCL2 150008Z 01006KT 08/M01 A3036 RMK A01 T00821008  RH  053%=      5-min Rain = 0
KCL2 150009Z 01006KT 08/M01 A3036 RMK A01 T00811008  RH  053%=      5-min Rain = 0
KCL2 150010Z 01005KT 08/M01 A3036 RMK A01 T00811008  RH  053%=      5-min Rain = 0
KCL2 150011Z 01006KT 08/M01 A3036 RMK A01 T00801008  RH  054%=      5-min Rain = 0
KCL2 150012Z 01006KT 08/M01 A3036 RMK A01 T00791009  RH  054%=      5-min Rain = 0
KCL2 150013Z 01005KT 08/M01 A3036 RMK A01 T00791009  RH  054%=      5-min Rain = 0
KCL2 150014Z 01005KT 08/M01 A3036 RMK A01 T00781009  RH  054%=      5-min Rain = 0
KCL2 150015Z 01005KT 08/M01 A3036 RMK A01 T00781009  RH  054%=      5-min Rain = 0
KCL2 150016Z 02006KT 08/M01 A3036 RMK A01 T00781009  RH  054%=      5-min Rain = 0
KCL2 150017Z 01005KT 08/M01 A3036 RMK A01 T00781009  RH  054%=      5-min Rain = 0
KCL2 150018Z 02006KT 08/M01 A3036 RMK A01 T00781009  RH  054%=      5-min Rain = 0
KCL2 150019Z 02006KT 08/M01 A3036 RMK A01 T00771009  RH  054%=      5-min Rain = 0
KCL2 150020Z 02005KT 08/M01 A3036 RMK A01 T00761009  RH  055%=      5-min Rain = 0
KCL2 150021Z 02006KT 08/M01 A3036 RMK A01 T00761009  RH  055%=      5-min Rain = 0
KCL2 150022Z 02006KT 08/M01 A3036 RMK A01 T00751009  RH  055%=      5-min Rain = 0
KCL2 150023Z 02006KT 07/M01 A3036 RMK A01 T00741009  RH  055%=      5-min Rain = 0
KCL2 150024Z 02006KT 07/M01 A3036 RMK A01 T00741009  RH  056%=      5-min Rain = 0
KCL2 150025Z 02005KT 07/M01 A3036 RMK A01 T00741009  RH  056%=      5-min Rain = 0
KCL2 150026Z 02006KT 07/M01 A3036 RMK A01 T00731009  RH  056%=      5-min Rain = 0
KCL2 150027Z 02005KT 07/M01 A3036 RMK A01 T00721010  RH  056%=      5-min Rain = 0
KCL2 150028Z 02005KT 07/M01 A3036 RMK A01 T00711010  RH  056%=      5-min Rain = 0
KCL2 150029Z 02005KT 07/M01 A3036 RMK A01 T00711009  RH  057%=      5-min Rain = 0
KCL2 150030Z 02005KT 07/M01 A3036 RMK A01 T00701009  RH  057%=      5-min Rain = 0
KCL2 150031Z 02005KT 07/M01 A3037 RMK A01 T00701009  RH  057%=      5-min Rain = 0
KCL2 150032Z 02005KT 07/M01 A3037 RMK A01 T00691010  RH  057%=      5-min Rain = 0
KCL2 150033Z 02005KT 07/M01 A3037 RMK A01 T00691010  RH  057%=      5-min Rain = 0
KCL2 150034Z 02005KT 07/M01 A3037 RMK A01 T00691010  RH  057%=      5-min Rain = 0
KCL2 150035Z 02005KT 07/M01 A3037 RMK A01 T00691010  RH  057%=      5-min Rain = 0
KCL2 150036Z 02005KT 07/M01 A3037 RMK A01 T00691009  RH  058%=      5-min Rain = 0
KCL2 150037Z 02005KT 07/M01 A3037 RMK A01 T00681010  RH  058%=      5-min Rain = 0
KCL2 150038Z 02005KT 07/M01 A3037 RMK A01 T00671010  RH  058%=      5-min Rain = 0
KCL2 150039Z 02005KT 07/M01 A3037 RMK A01 T00671010  RH  058%=      5-min Rain = 0
KCL2 150040Z 02005KT 07/M01 A3037 RMK A01 T00671010  RH  058%=      5-min Rain = 0
KCL2 150041Z 02005KT 07/M01 A3037 RMK A01 T00661010  RH  058%=      5-min Rain = 0
KCL2 150042Z 02005KT 07/M01 A3037 RMK A01 T00661010  RH  058%=      5-min Rain = 0
KCL2 150043Z 02005KT 07/M01 A3037 RMK A01 T00661010  RH  058%=      5-min Rain = 0
KCL2 150044Z 02005KT 07/M01 A3037 RMK A01 T00661010  RH  059%=      5-min Rain = 0
KCL2 150045Z 02005KT 07/M01 A3037 RMK A01 T00661010  RH  059%=      5-min Rain = 0
KCL2 150046Z 02005KT 07/M01 A3037 RMK A01 T00651010  RH  059%=      5-min Rain = 0
KCL2 150047Z 02005KT 07/M01 A3037 RMK A01 T00651010  RH  059%=      5-min Rain = 0
KCL2 150048Z 02005KT 06/M01 A3037 RMK A01 T00641010  RH  059%=      5-min Rain = 0
KCL2 150049Z 02006KT 06/M01 A3037 RMK A01 T00641010  RH  059%=      5-min Rain = 0
KCL2 150050Z 02005KT 06/M01 A3037 RMK A01 T00641010  RH  059%=      5-min Rain = 0
KCL2 150051Z 02006KT 07/M01 A3037 RMK A01 T00651010  RH  059%=      5-min Rain = 0
KCL2 150052Z 02005KT 06/M01 A3037 RMK A01 T00641010  RH  059%=      5-min Rain = 0
KCL2 150053Z 02006KT 06/M01 A3037 RMK A01 T00641011  RH  059%=      5-min Rain = 0
KCL2 150054Z 02006KT 06/M01 A3037 RMK A01 T00641010  RH  059%=      5-min Rain = 0
KCL2 150055Z 02006KT 06/M01 A3037 RMK A01 T00631010  RH  059%=      5-min Rain = 0
KCL2 150056Z 02005KT 06/M01 A3037 RMK A01 T00631010  RH  059%=      5-min Rain = 0
KCL2 150057Z 02006KT 06/M01 A3037 RMK A01 T00631010  RH  060%=      5-min Rain = 0
KCL2 150058Z 03005KT 06/M01 A3037 RMK A01 T00631010  RH  060%=      5-min Rain = 0
KCL2 150059Z 03006KT 06/M01 A3037 RMK A01 T00621010  RH  060%=      5-min Rain = 0
KCL2 150100Z 02005KT 06/M01 A3037 RMK A01 T00621010  RH  060%=      5-min Rain = 0
KCL2 150101Z 02005KT 06/M01 A3037 RMK A01 T00621010  RH  060%=      5-min Rain = 0
KCL2 150102Z 02005KT 06/M01 A3038 RMK A01 T00621010  RH  060%=      5-min Rain = 0
KCL2 150103Z 02006KT 06/M01 A3038 RMK A01 T00621010  RH  060%=      5-min Rain = 0
KCL2 150104Z 02006KT 06/M01 A3038 RMK A01 T00621010  RH  060%=      5-min Rain = 0
KCL2 150105Z 02006KT 06/M01 A3038 RMK A01 T00621010  RH  060%=      5-min Rain = 0
KCL2 150106Z 02006KT 06/M01 A3038 RMK A01 T00621011  RH  060%=      5-min Rain = 0
KCL2 150107Z 02006KT 06/M01 A3038 RMK A01 T00621011  RH  060%=      5-min Rain = 0
KCL2 150108Z 02006KT 06/M01 A3038 RMK A01 T00621011  RH  060%=      5-min Rain = 0
KCL2 150109Z 02006KT 06/M01 A3038 RMK A01 T00621010  RH  060%=      5-min Rain = 0
KCL2 150110Z 02006KT 06/M01 A3038 RMK A01 T00631010  RH  060%=      5-min Rain = 0
KCL2 150111Z 02006KT 06/M01 A3038 RMK A01 T00621011  RH  059%=      5-min Rain = 0
KCL2 150112Z 02006KT 06/M01 A3038 RMK A01 T00621010  RH  060%=      5-min Rain = 0
KCL2 150113Z 02006KT 06/M01 A3038 RMK A01 T00621010  RH  060%=      5-min Rain = 0
KCL2 150114Z 02005KT 06/M01 A3038 RMK A01 T00611010  RH  060%=      5-min Rain = 0
KCL2 150115Z 02005KT 06/M01 A3038 RMK A01 T00611010  RH  060%=      5-min Rain = 0
KCL2 150116Z 01005KT 06/M01 A3038 RMK A01 T00611010  RH  060%=      5-min Rain = 0
KCL2 150117Z 02005KT 06/M01 A3038 RMK A01 T00611010  RH  060%=      5-min Rain = 0
KCL2 150118Z 02006KT 06/M01 A3038 RMK A01 T00621010  RH  060%=      5-min Rain = 0
KCL2 150119Z 02005KT 06/M01 A3038 RMK A01 T00621011  RH  060%=      5-min Rain = 0
KCL2 150120Z 01005KT 06/M01 A3038 RMK A01 T00621010  RH  060%=      5-min Rain = 0
KCL2 150121Z 02006KT 06/M01 A3038 RMK A01 T00621010  RH  060%=      5-min Rain = 0
KCL2 150122Z 02006KT 06/M01 A3038 RMK A01 T00621010  RH  060%=      5-min Rain = 0
KCL2 150123Z 02005KT 06/M01 A3038 RMK A01 T00621010  RH  060%=      5-min Rain = 0
KCL2 150124Z 01004KT 06/M01 A3038 RMK A01 T00611010  RH  060%=      5-min Rain = 0
KCL2 150125Z 01004KT 06/M01 A3038 RMK A01 T00601011  RH  060%=      5-min Rain = 0
KCL2 150126Z 01004KT 06/M01 A3038 RMK A01 T00601010  RH  061%=      5-min Rain = 0
KCL2 150127Z 01005KT 06/M01 A3038 RMK A01 T00601010  RH  061%=      5-min Rain = 0
KCL2 150128Z 01005KT 06/M01 A3038 RMK A01 T00591011  RH  061%=      5-min Rain = 0
KCL2 150129Z 01004KT 06/M01 A3038 RMK A01 T00581011  RH  061%=      5-min Rain = 0
KCL2 150130Z 01005KT 06/M01 A3038 RMK A01 T00591010  RH  061%=      5-min Rain = 0
KCL2 150131Z 01005KT 06/M01 A3038 RMK A01 T00581010  RH  061%=      5-min Rain = 0
KCL2 150132Z 02005KT 06/M01 A3039 RMK A01 T00581010  RH  061%=      5-min Rain = 0
KCL2 150133Z 02005KT 06/M01 A3039 RMK A01 T00581010  RH  062%=      5-min Rain = 0
KCL2 150134Z 02006KT 06/M01 A3039 RMK A01 T00581010  RH  062%=      5-min Rain = 0
KCL2 150135Z 01005KT 06/M01 A3039 RMK A01 T00581010  RH  062%=      5-min Rain = 0
KCL2 150136Z 01005KT 06/M01 A3039 RMK A01 T00581010  RH  062%=      5-min Rain = 0
KCL2 150137Z 01006KT 06/M01 A3039 RMK A01 T00581010  RH  062%=      5-min Rain = 0
KCL2 150138Z 01006KT 06/M01 A3039 RMK A01 T00581010  RH  062%=      5-min Rain = 0
KCL2 150139Z 02006KT 06/M01 A3039 RMK A01 T00571010  RH  062%=      5-min Rain = 0
KCL2 150140Z 02005KT 06/M01 A3039 RMK A01 T00571010  RH  062%=      5-min Rain = 0
KCL2 150141Z 02005KT 06/M01 A3039 RMK A01 T00571010  RH  062%=      5-min Rain = 0
KCL2 150142Z 02006KT 06/M01 A3039 RMK A01 T00571010  RH  062%=      5-min Rain = 0
KCL2 150143Z 01005KT 06/M01 A3039 RMK A01 T00571010  RH  062%=      5-min Rain = 0
KCL2 150144Z 01005KT 06/M01 A3039 RMK A01 T00571010  RH  062%=      5-min Rain = 0
KCL2 150145Z 01005KT 06/M01 A3039 RMK A01 T00571010  RH  062%=      5-min Rain = 0
KCL2 150146Z 02006KT 06/M01 A3039 RMK A01 T00561010  RH  062%=      5-min Rain = 0
KCL2 150147Z 02006KT 06/M01 A3039 RMK A01 T00561010  RH  062%=      5-min Rain = 0
KCL2 150148Z 02006KT 06/M01 A3039 RMK A01 T00561010  RH  062%=      5-min Rain = 0
KCL2 150149Z 02006KT 06/M01 A3039 RMK A01 T00551010  RH  063%=      5-min Rain = 0
KCL2 150150Z 02005KT 06/M01 A3039 RMK A01 T00551010  RH  063%=      5-min Rain = 0
KCL2 150151Z 02006KT 05/M01 A3039 RMK A01 T00541010  RH  063%=      5-min Rain = 0
KCL2 150152Z 02006KT 05/M01 A3039 RMK A01 T00541010  RH  064%=      5-min Rain = 0
KCL2 150153Z 02006KT 05/M01 A3039 RMK A01 T00531010  RH  064%=      5-min Rain = 0
KCL2 150154Z 02006KT 05/M01 A3039 RMK A01 T00531010  RH  064%=      5-min Rain = 0
KCL2 150155Z 02006KT 05/M01 A3039 RMK A01 T00531010  RH  064%=      5-min Rain = 0
KCL2 150156Z 02005KT 05/M01 A3039 RMK A01 T00531010  RH  064%=      5-min Rain = 0
KCL2 150157Z 02006KT 05/M01 A3039 RMK A01 T00531010  RH  064%=      5-min Rain = 0
KCL2 150158Z 02006KT 05/M01 A3039 RMK A01 T00531010  RH  064%=      5-min Rain = 0
KCL2 150159Z 02006KT 05/M01 A3039 RMK A01 T00531010  RH  064%=      5-min Rain = 0
KCL2 150200Z 02006KT 05/M01 A3039 RMK A01 T00531011  RH  064%=      5-min Rain = 0
KCL2 150201Z 02006KT 05/M01 A3039 RMK A01 T00531011  RH  063%=      5-min Rain = 0
KCL2 150202Z 02006KT 05/M01 A3039 RMK A01 T00541010  RH  063%=      5-min Rain = 0
KCL2 150203Z 02005KT 05/M01 A3039 RMK A01 T00541010  RH  063%=      5-min Rain = 0
KCL2 150204Z 02005KT 05/M01 A3039 RMK A01 T00541010  RH  063%=      5-min Rain = 0
KCL2 150205Z 02005KT 05/M01 A3039 RMK A01 T00541011  RH  063%=      5-min Rain = 0
KCL2 150206Z 02005KT 05/M01 A3039 RMK A01 T00541011  RH  063%=      5-min Rain = 0
KCL2 150207Z 02005KT 05/M01 A304 RMK A01 T00541011  RH  063%=      5-min Rain = 0
KCL2 150208Z 01005KT 05/M01 A304 RMK A01 T00541011  RH  063%=      5-min Rain = 0
KCL2 150209Z 02005KT 05/M01 A304 RMK A01 T00531011  RH  063%=      5-min Rain = 0
KCL2 150210Z 02005KT 05/M01 A304 RMK A01 T00521011  RH  063%=      5-min Rain = 0
KCL2 150211Z 01004KT 05/M01 A304 RMK A01 T00521011  RH  064%=      5-min Rain = 0
KCL2 150212Z 01004KT 05/M01 A304 RMK A01 T00521011  RH  064%=      5-min Rain = 0
KCL2 150213Z 01004KT 05/M01 A304 RMK A01 T00521011  RH  064%=      5-min Rain = 0
KCL2 150214Z 02004KT 05/M01 A304 RMK A01 T00521011  RH  064%=      5-min Rain = 0
KCL2 150215Z 02004KT 05/M01 A304 RMK A01 T00521011  RH  064%=      5-min Rain = 0
KCL2 150216Z 02004KT 05/M01 A304 RMK A01 T00521011  RH  064%=      5-min Rain = 0
KCL2 150217Z 02004KT 05/M01 A304 RMK A01 T00511011  RH  064%=      5-min Rain = 0
KCL2 150218Z 02004KT 05/M01 A304 RMK A01 T00511011  RH  064%=      5-min Rain = 0
KCL2 150219Z 01005KT 05/M01 A304 RMK A01 T00511011  RH  064%=      5-min Rain = 0
KCL2 150220Z 01005KT 05/M01 A304 RMK A01 T00501011  RH  064%=      5-min Rain = 0
KCL2 150221Z 01005KT 05/M01 A304 RMK A01 T00501012  RH  064%=      5-min Rain = 0
KCL2 150222Z 01004KT 05/M01 A304 RMK A01 T00501012  RH  064%=      5-min Rain = 0
KCL2 150223Z 01005KT 05/M01 A304 RMK A01 T00491012  RH  064%=      5-min Rain = 0
KCL2 150224Z 01006KT 05/M01 A304 RMK A01 T00491012  RH  065%=      5-min Rain = 0
KCL2 150225Z 02006KT 05/M01 A304 RMK A01 T00491012  RH  065%=      5-min Rain = 0
KCL2 150226Z 02005KT 05/M01 A304 RMK A01 T00491012  RH  065%=      5-min Rain = 0
KCL2 150227Z 02006KT 05/M01 A304 RMK A01 T00491012  RH  065%=      5-min Rain = 0
KCL2 150228Z 02006KT 05/M01 A304 RMK A01 T00491011  RH  065%=      5-min Rain = 0
KCL2 150229Z 02005KT 05/M01 A304 RMK A01 T00491012  RH  065%=      5-min Rain = 0
KCL2 150230Z 02005KT 05/M01 A304 RMK A01 T00491011  RH  065%=      5-min Rain = 0
KCL2 150231Z 02006KT 05/M01 A304 RMK A01 T00481012  RH  065%=      5-min Rain = 0
KCL2 150232Z 02005KT 05/M01 A304 RMK A01 T00481011  RH  065%=      5-min Rain = 0
KCL2 150233Z 02005KT 05/M01 A304 RMK A01 T00481011  RH  066%=      5-min Rain = 0
KCL2 150234Z 02005KT 05/M01 A3041 RMK A01 T00471011  RH  066%=      5-min Rain = 0
KCL2 150235Z 02005KT 05/M01 A3041 RMK A01 T00471011  RH  066%=      5-min Rain = 0
KCL2 150236Z 02005KT 05/M01 A3041 RMK A01 T00471012  RH  066%=      5-min Rain = 0
KCL2 150237Z 02005KT 05/M01 A3041 RMK A01 T00471011  RH  066%=      5-min Rain = 0
KCL2 150238Z 02005KT 05/M01 A3041 RMK A01 T00471012  RH  066%=      5-min Rain = 0
KCL2 150239Z 02004KT 05/M01 A3041 RMK A01 T00471012  RH  065%=      5-min Rain = 0
KCL2 150240Z 02004KT 05/M01 A3041 RMK A01 T00471012  RH  065%=      5-min Rain = 0
KCL2 150241Z 02004KT 05/M01 A3041 RMK A01 T00481012  RH  065%=      5-min Rain = 0
KCL2 150242Z 02004KT 05/M01 A3041 RMK A01 T00481013  RH  065%=      5-min Rain = 0
KCL2 150243Z 02004KT 05/M01 A3041 RMK A01 T00471013  RH  065%=      5-min Rain = 0
KCL2 150244Z 02003KT 05/M01 A3041 RMK A01 T00481013  RH  065%=      5-min Rain = 0
KCL2 150245Z 02003KT 05/M01 A3041 RMK A01 T00481013  RH  065%=      5-min Rain = 0
KCL2 150246Z 02004KT 05/M01 A3041 RMK A01 T00481014  RH  064%=      5-min Rain = 0
KCL2 150247Z 02004KT 05/M01 A3041 RMK A01 T00481014  RH  064%=      5-min Rain = 0
KCL2 150248Z 02003KT 05/M01 A3041 RMK A01 T00481013  RH  064%=      5-min Rain = 0
KCL2 150249Z 02003KT 05/M01 A3041 RMK A01 T00481013  RH  064%=      5-min Rain = 0
KCL2 150250Z 02003KT 05/M01 A3041 RMK A01 T00491013  RH  064%=      5-min Rain = 0
KCL2 150251Z 02003KT 05/M01 A3041 RMK A01 T00491013  RH  064%=      5-min Rain = 0
KCL2 150252Z 02003KT 05/M01 A3041 RMK A01 T00491013  RH  064%=      5-min Rain = 0
KCL2 150253Z 02003KT 05/M01 A3041 RMK A01 T00501013  RH  064%=      5-min Rain = 0
KCL2 150254Z 01003KT 05/M01 A3041 RMK A01 T00501013  RH  064%=      5-min Rain = 0
KCL2 150255Z 02003KT 05/M01 A3041 RMK A01 T00501013  RH  064%=      5-min Rain = 0
KCL2 150256Z 02003KT 05/M01 A3041 RMK A01 T00501013  RH  064%=      5-min Rain = 0
KCL2 150257Z 01003KT 05/M01 A3041 RMK A01 T00511013  RH  063%=      5-min Rain = 0
KCL2 150258Z 02003KT 05/M01 A3041 RMK A01 T00511013  RH  063%=      5-min Rain = 0
KCL2 150259Z 02004KT 05/M01 A3041 RMK A01 T00511013  RH  063%=      5-min Rain = 0
KCL2 150300Z 02004KT 05/M01 A3041 RMK A01 T00511013  RH  063%=      5-min Rain = 0
KCL2 150301Z 02003KT 05/M01 A3041 RMK A01 T00511013  RH  063%=      5-min Rain = 0
KCL2 150302Z 02004KT 05/M01 A3041 RMK A01 T00511013  RH  063%=      5-min Rain = 0
KCL2 150303Z 02004KT 05/M01 A3041 RMK A01 T00511013  RH  063%=      5-min Rain = 0
KCL2 150304Z 02003KT 05/M01 A3041 RMK A01 T00511013  RH  063%=      5-min Rain = 0
KCL2 150305Z 02003KT 05/M01 A3041 RMK A01 T00501014  RH  063%=      5-min Rain = 0
KCL2 150306Z 02004KT 05/M01 A3041 RMK A01 T00501014  RH  063%=      5-min Rain = 0
KCL2 150307Z 02003KT 05/M01 A3041 RMK A01 T00501013  RH  064%=      5-min Rain = 0
KCL2 150308Z 02003KT 05/M01 A3041 RMK A01 T00501013  RH  064%=      5-min Rain = 0
KCL2 150309Z 02003KT 05/M01 A3041 RMK A01 T00501014  RH  064%=      5-min Rain = 0
KCL2 150310Z 02003KT 05/M01 A3041 RMK A01 T00501013  RH  064%=      5-min Rain = 0
KCL2 150311Z 02003KT 05/M01 A3041 RMK A01 T00491014  RH  064%=      5-min Rain = 0
KCL2 150312Z 02004KT 05/M01 A3041 RMK A01 T00491013  RH  064%=      5-min Rain = 0
KCL2 150313Z 02004KT 05/M01 A3041 RMK A01 T00491013  RH  064%=      5-min Rain = 0
KCL2 150314Z 02004KT 05/M01 A3041 RMK A01 T00491013  RH  064%=      5-min Rain = 0
KCL2 150315Z 02005KT 05/M01 A3041 RMK A01 T00491013  RH  064%=      5-min Rain = 0
KCL2 150316Z 02004KT 05/M01 A3041 RMK A01 T00481013  RH  064%=      5-min Rain = 0
KCL2 150317Z 02005KT 05/M01 A3041 RMK A01 T00481013  RH  064%=      5-min Rain = 0
KCL2 150318Z 02005KT 05/M01 A3041 RMK A01 T00481013  RH  065%=      5-min Rain = 0
KCL2 150319Z 02005KT 05/M01 A3041 RMK A01 T00471013  RH  065%=      5-min Rain = 0
KCL2 150320Z 02005KT 05/M01 A3041 RMK A01 T00471013  RH  065%=      5-min Rain = 0
KCL2 150321Z 02005KT 05/M01 A3041 RMK A01 T00461013  RH  065%=      5-min Rain = 0
KCL2 150322Z 02005KT 05/M01 A3041 RMK A01 T00471013  RH  065%=      5-min Rain = 0
KCL2 150323Z 02005KT 05/M01 A3041 RMK A01 T00471012  RH  066%=      5-min Rain = 0
KCL2 150324Z 02005KT 05/M01 A3041 RMK A01 T00471012  RH  066%=      5-min Rain = 0
KCL2 150325Z 02005KT 05/M01 A3041 RMK A01 T00471012  RH  066%=      5-min Rain = 0
KCL2 150326Z 01006KT 05/M01 A3041 RMK A01 T00461013  RH  065%=      5-min Rain = 0
KCL2 150327Z 01005KT 05/M01 A3041 RMK A01 T00471012  RH  066%=      5-min Rain = 0
KCL2 150328Z 01005KT 05/M01 A3041 RMK A01 T00461013  RH  066%=      5-min Rain = 0
KCL2 150329Z 01005KT 05/M01 A3041 RMK A01 T00461013  RH  066%=      5-min Rain = 0
KCL2 150330Z 01005KT 05/M01 A3041 RMK A01 T00461013  RH  066%=      5-min Rain = 0
KCL2 150331Z 01005KT 05/M01 A3041 RMK A01 T00461012  RH  066%=      5-min Rain = 0
KCL2 150332Z 01005KT 05/M01 A3041 RMK A01 T00471012  RH  066%=      5-min Rain = 0
KCL2 150333Z 01005KT 05/M01 A3041 RMK A01 T00471012  RH  066%=      5-min Rain = 0
KCL2 150334Z 01005KT 05/M01 A3041 RMK A01 T00471012  RH  066%=      5-min Rain = 0
KCL2 150335Z 01005KT 05/M01 A3041 RMK A01 T00471012  RH  066%=      5-min Rain = 0
KCL2 150336Z 02005KT 05/M01 A3041 RMK A01 T00471012  RH  066%=      5-min Rain = 0
KCL2 150337Z 02005KT 05/M01 A3041 RMK A01 T00481012  RH  065%=      5-min Rain = 0
KCL2 150338Z 02005KT 05/M01 A3041 RMK A01 T00481012  RH  065%=      5-min Rain = 0
KCL2 150339Z 02005KT 05/M01 A3041 RMK A01 T00481012  RH  065%=      5-min Rain = 0
KCL2 150340Z 02005KT 05/M01 A3041 RMK A01 T00481012  RH  065%=      5-min Rain = 0
KCL2 150341Z 02005KT 05/M01 A3041 RMK A01 T00481012  RH  065%=      5-min Rain = 0
KCL2 150342Z 02006KT 05/M01 A3041 RMK A01 T00481012  RH  065%=      5-min Rain = 0
KCL2 150343Z 02005KT 05/M01 A3041 RMK A01 T00481012  RH  065%=      5-min Rain = 0
KCL2 150344Z 02006KT 05/M01 A3041 RMK A01 T00481012  RH  065%=      5-min Rain = 0
KCL2 150345Z 02005KT 05/M01 A3041 RMK A01 T00481012  RH  065%=      5-min Rain = 0
KCL2 150346Z 02005KT 05/M01 A3041 RMK A01 T00481012  RH  065%=      5-min Rain = 0
KCL2 150347Z 02006KT 05/M01 A3041 RMK A01 T00471012  RH  065%=      5-min Rain = 0
KCL2 150348Z 02005KT 05/M01 A3041 RMK A01 T00471012  RH  065%=      5-min Rain = 0
KCL2 150349Z 03005KT 05/M01 A3041 RMK A01 T00481012  RH  065%=      5-min Rain = 0
KCL2 150350Z 02005KT 05/M01 A3041 RMK A01 T00481011  RH  065%=      5-min Rain = 0
KCL2 150351Z 02005KT 05/M01 A3041 RMK A01 T00481012  RH  065%=      5-min Rain = 0
KCL2 150352Z 02005KT 05/M01 A3041 RMK A01 T00481012  RH  065%=      5-min Rain = 0
KCL2 150353Z 02004KT 05/M01 A3041 RMK A01 T00481012  RH  065%=      5-min Rain = 0
KCL2 150354Z 02005KT 05/M01 A3041 RMK A01 T00481012  RH  065%=      5-min Rain = 0
KCL2 150355Z 02004KT 05/M01 A3041 RMK A01 T00481012  RH  065%=      5-min Rain = 0
KCL2 150356Z 02005KT 05/M01 A3041 RMK A01 T00481012  RH  065%=      5-min Rain = 0
KCL2 150357Z 02005KT 05/M01 A3041 RMK A01 T00471011  RH  066%=      5-min Rain = 0
KCL2 150358Z 02005KT 05/M01 A3041 RMK A01 T00471011  RH  066%=      5-min Rain = 0
KCL2 150359Z 02006KT 05/M01 A3041 RMK A01 T00451012  RH  066%=      5-min Rain = 0
KCL2 150400Z 03006KT 05/M01 A3041 RMK A01 T00451011  RH  067%=      5-min Rain = 0
KCL2 150401Z 02006KT 04/M01 A3041 RMK A01 T00441012  RH  067%=      5-min Rain = 0
KCL2 150402Z 02006KT 04/M01 A3041 RMK A01 T00441012  RH  067%=      5-min Rain = 0
KCL2 150403Z 02006KT 04/M01 A3041 RMK A01 T00431011  RH  068%=      5-min Rain = 0
KCL2 150404Z 02006KT 04/M01 A3041 RMK A01 T00431011  RH  068%=      5-min Rain = 0
KCL2 150405Z 02006KT 04/M01 A3041 RMK A01 T00431011  RH  068%=      5-min Rain = 0
KCL2 150406Z 02006KT 04/M01 A3041 RMK A01 T00431011  RH  068%=      5-min Rain = 0
KCL2 150407Z 02006KT 04/M01 A3041 RMK A01 T00421011  RH  068%=      5-min Rain = 0
KCL2 150408Z 02006KT 04/M01 A3041 RMK A01 T00421011  RH  068%=      5-min Rain = 0
KCL2 150409Z 02006KT 04/M01 A3041 RMK A01 T00421011  RH  068%=      5-min Rain = 0
KCL2 150410Z 02006KT 04/M01 A3041 RMK A01 T00421011  RH  068%=      5-min Rain = 0
KCL2 150411Z 02006KT 04/M01 A3041 RMK A01 T00421011  RH  068%=      5-min Rain = 0
KCL2 150412Z 02006KT 04/M01 A3041 RMK A01 T00421011  RH  068%=      5-min Rain = 0
KCL2 150413Z 02005KT 04/M01 A3041 RMK A01 T00421011  RH  068%=      5-min Rain = 0
KCL2 150414Z 02005KT 04/M01 A3041 RMK A01 T00431011  RH  068%=      5-min Rain = 0
KCL2 150415Z 02006KT 04/M01 A3041 RMK A01 T00431011  RH  068%=      5-min Rain = 0
KCL2 150416Z 02006KT 04/M01 A3041 RMK A01 T00441011  RH  067%=      5-min Rain = 0
KCL2 150417Z 02006KT 04/M01 A3041 RMK A01 T00441012  RH  067%=      5-min Rain = 0
KCL2 150418Z 02005KT 05/M01 A3041 RMK A01 T00451012  RH  067%=      5-min Rain = 0
KCL2 150419Z 02005KT 05/M01 A3041 RMK A01 T00451012  RH  067%=      5-min Rain = 0
KCL2 150420Z 02006KT 05/M01 A3041 RMK A01 T00451012  RH  066%=      5-min Rain = 0
KCL2 150421Z 02005KT 04/M01 A3041 RMK A01 T00441012  RH  067%=      5-min Rain = 0
KCL2 150422Z 02005KT 04/M01 A3041 RMK A01 T00441012  RH  067%=      5-min Rain = 0
KCL2 150423Z 02005KT 04/M01 A3041 RMK A01 T00441012  RH  067%=      5-min Rain = 0
KCL2 150424Z 03005KT 04/M01 A3041 RMK A01 T00431012  RH  067%=      5-min Rain = 0
KCL2 150425Z 03005KT 04/M01 A3041 RMK A01 T00431012  RH  067%=      5-min Rain = 0
KCL2 150426Z 02005KT 04/M01 A3041 RMK A01 T00421013  RH  067%=      5-min Rain = 0
KCL2 150427Z 02006KT 04/M01 A3041 RMK A01 T00431012  RH  067%=      5-min Rain = 0
KCL2 150428Z 02006KT 04/M01 A3041 RMK A01 T00431012  RH  067%=      5-min Rain = 0
KCL2 150429Z 02006KT 04/M01 A3041 RMK A01 T00421012  RH  067%=      5-min Rain = 0
KCL2 150430Z 02006KT 04/M01 A3041 RMK A01 T00421013  RH  067%=      5-min Rain = 0
KCL2 150431Z 02006KT 04/M01 A3041 RMK A01 T00421013  RH  067%=      5-min Rain = 0
KCL2 150432Z 02005KT 04/M01 A3041 RMK A01 T00431012  RH  067%=      5-min Rain = 0
KCL2 150433Z 02005KT 04/M01 A3041 RMK A01 T00431012  RH  067%=      5-min Rain = 0
KCL2 150434Z 02005KT 04/M01 A3041 RMK A01 T00431012  RH  067%=      5-min Rain = 0
KCL2 150435Z 03005KT 04/M01 A3041 RMK A01 T00431012  RH  067%=      5-min Rain = 0
KCL2 150436Z 02005KT 04/M01 A3041 RMK A01 T00431012  RH  067%=      5-min Rain = 0
KCL2 150437Z 02004KT 04/M01 A3041 RMK A01 T00431013  RH  067%=      5-min Rain = 0
KCL2 150438Z 02004KT 04/M01 A3041 RMK A01 T00441012  RH  067%=      5-min Rain = 0
KCL2 150439Z 02004KT 04/M01 A3041 RMK A01 T00441012  RH  067%=      5-min Rain = 0
KCL2 150440Z 01004KT 05/M01 A3041 RMK A01 T00451012  RH  067%=      5-min Rain = 0
KCL2 150441Z 01004KT 05/M01 A3041 RMK A01 T00451012  RH  066%=      5-min Rain = 0
KCL2 150442Z 01003KT 05/M01 A3041 RMK A01 T00451012  RH  066%=      5-min Rain = 0
KCL2 150443Z 00003KT 05/M01 A3041 RMK A01 T00461012  RH  066%=      5-min Rain = 0
KCL2 150444Z 36002KT 04/M01 A3041 RMK A01 T00441014  RH  066%=      5-min Rain = 0
KCL2 150445Z 35002KT 04/M02 A3041 RMK A01 T00391017  RH  067%=      5-min Rain = 0
KCL2 150446Z 35002KT 04/M02 A3042 RMK A01 T00351018  RH  068%=      5-min Rain = 0
KCL2 150447Z 35002KT 03/M02 A3042 RMK A01 T00321017  RH  070%=      5-min Rain = 0
KCL2 150448Z 34001KT 03/M02 A3042 RMK A01 T00301017  RH  071%=      5-min Rain = 0
KCL2 150449Z 33001KT 03/M02 A3042 RMK A01 T00301016  RH  072%=      5-min Rain = 0
KCL2 150450Z 32000KT 03/M02 A3042 RMK A01 T00291016  RH  072%=      5-min Rain = 0
KCL2 150451Z 29001KT 03/M02 A3042 RMK A01 T00301016  RH  072%=      5-min Rain = 0
KCL2 150452Z 29001KT 03/M02 A3042 RMK A01 T00301015  RH  072%=      5-min Rain = 0
KCL2 150453Z 29001KT 03/M02 A3042 RMK A01 T00301015  RH  072%=      5-min Rain = 0
KCL2 150454Z 27001KT 03/M02 A3042 RMK A01 T00301015  RH  072%=      5-min Rain = 0
KCL2 150455Z 27001KT 03/M02 A3042 RMK A01 T00301016  RH  072%=      5-min Rain = 0
KCL2 150456Z 28001KT 03/M02 A3042 RMK A01 T00301016  RH  072%=      5-min Rain = 0
KCL2 150457Z 31001KT 03/M02 A3042 RMK A01 T00291017  RH  072%=      5-min Rain = 0
KCL2 150458Z 27001KT 03/M02 A3042 RMK A01 T00281017  RH  072%=      5-min Rain = 0
KCL2 150459Z 29001KT 03/M02 A3042 RMK A01 T00281017  RH  072%=      5-min Rain = 0
KCL2 150500Z 32001KT 03/M02 A3042 RMK A01 T00271018  RH  072%=      5-min Rain = 0
KCL2 150501Z 30000KT 03/M02 A3042 RMK A01 T00271017  RH  073%=      5-min Rain = 0
KCL2 150502Z 32001KT 03/M02 A3042 RMK A01 T00281016  RH  073%=      5-min Rain = 0
KCL2 150503Z 32001KT 03/M02 A3042 RMK A01 T00291016  RH  072%=      5-min Rain = 0
KCL2 150504Z 34001KT 03/M02 A3042 RMK A01 T00301016  RH  072%=      5-min Rain = 0
KCL2 150505Z 35002KT 03/M02 A3042 RMK A01 T00301016  RH  072%=      5-min Rain = 0
KCL2 150506Z 35002KT 03/M02 A3042 RMK A01 T00311015  RH  072%=      5-min Rain = 0
KCL2 150507Z 34003KT 03/M01 A3042 RMK A01 T00321014  RH  071%=      5-min Rain = 0
KCL2 150508Z 34003KT 03/M01 A3042 RMK A01 T00341014  RH  071%=      5-min Rain = 0
KCL2 150509Z 35003KT 04/M01 A3042 RMK A01 T00361014  RH  070%=      5-min Rain = 0
KCL2 150510Z 35003KT 04/M02 A3042 RMK A01 T00371015  RH  069%=      5-min Rain = 0
KCL2 150511Z 35003KT 04/M02 A3042 RMK A01 T00371016  RH  069%=      5-min Rain = 0
KCL2 150512Z 35004KT 04/M02 A3042 RMK A01 T00361016  RH  069%=      5-min Rain = 0
KCL2 150513Z 36004KT 04/M02 A3042 RMK A01 T00351017  RH  069%=      5-min Rain = 0
KCL2 150514Z 36004KT 03/M02 A3042 RMK A01 T00341016  RH  069%=      5-min Rain = 0
KCL2 150515Z 00004KT 03/M02 A3042 RMK A01 T00341016  RH  070%=      5-min Rain = 0
KCL2 150516Z 01003KT 04/M02 A3042 RMK A01 T00351016  RH  069%=      5-min Rain = 0
KCL2 150517Z 01003KT 04/M02 A3042 RMK A01 T00351016  RH  069%=      5-min Rain = 0
KCL2 150518Z 01004KT 04/M02 A3042 RMK A01 T00351016  RH  069%=      5-min Rain = 0
KCL2 150519Z 00004KT 04/M02 A3042 RMK A01 T00351017  RH  069%=      5-min Rain = 0
KCL2 150520Z 01003KT 03/M02 A3042 RMK A01 T00341017  RH  069%=      5-min Rain = 0
KCL2 150521Z 00003KT 03/M02 A3042 RMK A01 T00341016  RH  070%=      5-min Rain = 0
KCL2 150522Z 36003KT 03/M02 A3042 RMK A01 T00341016  RH  070%=      5-min Rain = 0
KCL2 150523Z 35003KT 04/M02 A3042 RMK A01 T00351016  RH  069%=      5-min Rain = 0
KCL2 150524Z 35003KT 04/M02 A3042 RMK A01 T00361016  RH  069%=      5-min Rain = 0
KCL2 150525Z 34003KT 04/M02 A3042 RMK A01 T00361015  RH  069%=      5-min Rain = 0
KCL2 150526Z 34003KT 04/M02 A3042 RMK A01 T00361016  RH  069%=      5-min Rain = 0
KCL2 150527Z 34003KT 04/M02 A3042 RMK A01 T00351017  RH  069%=      5-min Rain = 0
KCL2 150528Z 35003KT 03/M02 A3042 RMK A01 T00341017  RH  069%=      5-min Rain = 0
KCL2 150529Z 35003KT 03/M02 A3042 RMK A01 T00331017  RH  070%=      5-min Rain = 0
KCL2 150530Z 35003KT 03/M02 A3042 RMK A01 T00311019  RH  069%=      5-min Rain = 0
KCL2 150531Z 34003KT 03/M02 A3042 RMK A01 T00281021  RH  070%=      5-min Rain = 0
KCL2 150532Z 34003KT 03/M02 A3042 RMK A01 T00261021  RH  071%=      5-min Rain = 0
KCL2 150533Z 34003KT 03/M02 A3042 RMK A01 T00251021  RH  072%=      5-min Rain = 0
KCL2 150534Z 34002KT 02/M02 A3042 RMK A01 T00241019  RH  073%=      5-min Rain = 0
KCL2 150535Z 34002KT 02/M02 A3043 RMK A01 T00241019  RH  073%=      5-min Rain = 0
KCL2 150536Z 34002KT 02/M02 A3043 RMK A01 T00241019  RH  073%=      5-min Rain = 0
KCL2 150537Z 34002KT 03/M02 A3042 RMK A01 T00251019  RH  073%=      5-min Rain = 0
KCL2 150538Z 34002KT 03/M02 A3042 RMK A01 T00251018  RH  073%=      5-min Rain = 0
KCL2 150539Z 35003KT 02/M02 A3042 RMK A01 T00241019  RH  073%=      5-min Rain = 0
KCL2 150540Z 35003KT 02/M02 A3042 RMK A01 T00241019  RH  073%=      5-min Rain = 0
KCL2 150541Z 35003KT 02/M02 A3042 RMK A01 T00241018  RH  074%=      5-min Rain = 0
KCL2 150542Z 36003KT 02/M02 A3042 RMK A01 T00241018  RH  074%=      5-min Rain = 0
KCL2 150543Z 36003KT 02/M02 A3042 RMK A01 T00241018  RH  074%=      5-min Rain = 0
KCL2 150544Z 35003KT 02/M02 A3042 RMK A01 T00241018  RH  074%=      5-min Rain = 0
KCL2 150545Z 35003KT 02/M02 A3043 RMK A01 T00241018  RH  074%=      5-min Rain = 0
KCL2 150546Z 35003KT 02/M02 A3042 RMK A01 T00241017  RH  074%=      5-min Rain = 0
KCL2 150547Z 35003KT 03/M02 A3042 RMK A01 T00251017  RH  074%=      5-min Rain = 0
KCL2 150548Z 35003KT 03/M02 A3043 RMK A01 T00261016  RH  074%=      5-min Rain = 0
KCL2 150549Z 35003KT 03/M02 A3043 RMK A01 T00261016  RH  073%=      5-min Rain = 0
KCL2 150550Z 35004KT 03/M02 A3043 RMK A01 T00271016  RH  073%=      5-min Rain = 0
KCL2 150551Z 35004KT 03/M02 A3042 RMK A01 T00281016  RH  073%=      5-min Rain = 0
KCL2 150552Z 35004KT 03/M02 A3042 RMK A01 T00281016  RH  073%=      5-min Rain = 0
KCL2 150553Z 35004KT 03/M02 A3042 RMK A01 T00281016  RH  073%=      5-min Rain = 0
KCL2 150554Z 35004KT 03/M02 A3042 RMK A01 T00281016  RH  073%=      5-min Rain = 0
KCL2 150555Z 35004KT 03/M02 A3042 RMK A01 T00281016  RH  073%=      5-min Rain = 0
KCL2 150556Z 35004KT 03/M02 A3042 RMK A01 T00271016  RH  073%=      5-min Rain = 0
KCL2 150557Z 36004KT 03/M02 A3042 RMK A01 T00261017  RH  073%=      5-min Rain = 0
KCL2 150558Z 00004KT 03/M02 A3042 RMK A01 T00251017  RH  073%=      5-min Rain = 0
KCL2 150559Z 36004KT 02/M02 A3042 RMK A01 T00241018  RH  074%=      5-min Rain = 0

Page generated in 0.1216 seconds.